Wetterdaten: Mittwoch, 21.11.2018
Datum Zeit Temp. Aussen Temp. o. S. +5cm Feuchte Auss Luftdruck Regen Sonnenschein Regendauer Solar Windben Empfang
21.11.2018 00:00 3,6 C 3,3 C 2,8 C 84 % 1008,0 hPa 0,0 l/m 0 min 0 min 0 W/m 16,1 km/h (3 Bft) 95,74 %
21.11.2018 00:02 3,6 C 3,3 C 2,8 C 84 % 1008,0 hPa 0,0 l/m 0 min 0 min 0 W/m 12,9 km/h (3 Bft) 94,74 %
21.11.2018 00:04 3,7 C 3,3 C 2,8 C 84 % 1008,1 hPa 0,0 l/m 0 min 0 min 0 W/m 12,9 km/h (3 Bft) 95,65 %
21.11.2018 00:08 3,7 C 3,3 C 2,8 C 84 % 1008,1 hPa 0,0 l/m 0 min 0 min 0 W/m 12,9 km/h (3 Bft) 94,68 %
21.11.2018 00:10 3,7 C 3,3 C 2,8 C 84 % 1008,0 hPa 0,0 l/m 0 min 0 min 0 W/m 12,9 km/h (3 Bft) 93,62 %
21.11.2018 00:12 3,7 C 3,3 C 2,8 C 84 % 1008,0 hPa 0,0 l/m 0 min 0 min 0 W/m 12,9 km/h (3 Bft) 95,74 %
21.11.2018 00:14 3,7 C 3,3 C 2,8 C 84 % 1008,0 hPa 0,0 l/m 0 min 0 min 0 W/m 9,7 km/h (2 Bft) 97,87 %
21.11.2018 00:16 3,7 C 3,3 C 2,8 C 83 % 1008,0 hPa 0,0 l/m 0 min 0 min 0 W/m 9,7 km/h (2 Bft) 97,83 %
21.11.2018 00:18 3,7 C 3,3 C 2,8 C 83 % 1007,9 hPa 0,0 l/m 0 min 0 min 0 W/m 12,9 km/h (3 Bft) 97,87 %
21.11.2018 00:20 3,7 C 3,3 C 2,8 C 83 % 1007,9 hPa 0,0 l/m 0 min 0 min 0 W/m 12,9 km/h (3 Bft) 95,74 %
21.11.2018 00:22 3,8 C 3,3 C 2,8 C 83 % 1008,0 hPa 0,0 l/m 0 min 0 min 0 W/m 29,0 km/h (5 Bft) 97,87 %
21.11.2018 00:24 3,8 C 3,3 C 2,8 C 83 % 1008,0 hPa 0,0 l/m 0 min 0 min 0 W/m 12,9 km/h (3 Bft) 97,87 %
21.11.2018 00:26 3,8 C 3,3 C 2,8 C 83 % 1008,0 hPa 0,0 l/m 0 min 0 min 0 W/m 12,9 km/h (3 Bft) 100,00 %
21.11.2018 00:28 3,8 C 3,3 C 2,8 C 83 % 1008,0 hPa 0,0 l/m 0 min 0 min 0 W/m 12,9 km/h (3 Bft) 97,83 %
21.11.2018 00:30 3,8 C 3,3 C 2,8 C 83 % 1007,9 hPa 0,0 l/m 0 min 0 min 0 W/m 9,7 km/h (2 Bft) 93,62 %
21.11.2018 00:32 3,8 C 3,3 C 2,8 C 83 % 1007,9 hPa 0,0 l/m 0 min 0 min 0 W/m 9,7 km/h (2 Bft) 100,00 %
21.11.2018 00:34 3,8 C 3,3 C 2,8 C 83 % 1007,9 hPa 0,0 l/m 0 min 0 min 0 W/m 16,1 km/h (3 Bft) 100,00 %
21.11.2018 00:36 3,8 C 3,3 C 2,8 C 83 % 1007,9 hPa 0,0 l/m 0 min 0 min 0 W/m 16,1 km/h (3 Bft) 100,00 %
21.11.2018 00:38 3,9 C 3,3 C 2,8 C 83 % 1007,9 hPa 0,0 l/m 0 min 0 min 0 W/m 12,9 km/h (3 Bft) 97,87 %
21.11.2018 00:40 3,9 C 3,3 C 2,8 C 83 % 1008,0 hPa 0,0 l/m 0 min 0 min 0 W/m 22,5 km/h (4 Bft) 97,83 %
21.11.2018 00:42 3,9 C 3,3 C 2,8 C 83 % 1007,9 hPa 0,0 l/m 0 min 0 min 0 W/m 12,9 km/h (3 Bft) 100,00 %
21.11.2018 00:44 3,9 C 3,3 C 2,8 C 83 % 1007,9 hPa 0,0 l/m 0 min 0 min 0 W/m 16,1 km/h (3 Bft) 100,00 %
21.11.2018 00:46 3,9 C 3,3 C 2,8 C 83 % 1007,8 hPa 0,0 l/m 0 min 0 min 0 W/m 19,3 km/h (3 Bft) 97,87 %
21.11.2018 00:48 3,9 C 3,3 C 2,8 C 83 % 1007,8 hPa 0,0 l/m 0 min 0 min 0 W/m 12,9 km/h (3 Bft) 100,00 %
21.11.2018 00:50 3,9 C 3,3 C 2,8 C 83 % 1007,8 hPa 0,0 l/m 0 min 0 min 0 W/m 16,1 km/h (3 Bft) 100,00 %
21.11.2018 00:52 3,9 C 3,3 C 2,8 C 83 % 1007,8 hPa 0,0 l/m 0 min 0 min 0 W/m 9,7 km/h (2 Bft) 100,00 %
21.11.2018 00:54 4,0 C 3,3 C 2,8 C 83 % 1007,8 hPa 0,0 l/m 0 min 0 min 0 W/m 12,9 km/h (3 Bft) 97,87 %
21.11.2018 00:56 4,0 C 3,3 C 2,8 C 82 % 1007,8 hPa 0,0 l/m 0 min 0 min 0 W/m 12,9 km/h (3 Bft) 100,00 %
21.11.2018 00:58 4,0 C 3,3 C 2,8 C 82 % 1007,8 hPa 0,0 l/m 0 min 0 min 0 W/m 12,9 km/h (3 Bft) 100,00 %
21.11.2018 01:00 4,0 C 3,3 C 2,8 C 83 % 1007,8 hPa 0,0 l/m 0 min 0 min 0 W/m 12,9 km/h (3 Bft) 100,00 %
21.11.2018 01:02 4,0 C 3,3 C 2,8 C 82 % 1007,8 hPa 0,0 l/m 0 min 0 min 0 W/m 9,7 km/h (2 Bft) 97,83 %
21.11.2018 01:04 4,0 C 3,3 C 2,8 C 82 % 1007,8 hPa 0,0 l/m 0 min 0 min 0 W/m 12,9 km/h (3 Bft) 97,87 %
21.11.2018 01:06 4,0 C 3,3 C 2,8 C 82 % 1007,8 hPa 0,0 l/m 0 min 0 min 0 W/m 16,1 km/h (3 Bft) 100,00 %
21.11.2018 01:08 4,0 C 3,3 C 2,8 C 82 % 1007,9 hPa 0,0 l/m 0 min 0 min 0 W/m 22,5 km/h (4 Bft) 100,00 %
21.11.2018 01:10 4,0 C 3,3 C 2,8 C 82 % 1007,9 hPa 0,0 l/m 0 min 0 min 0 W/m 16,1 km/h (3 Bft) 97,87 %
21.11.2018 01:12 4,0 C 3,3 C 2,8 C 82 % 1007,9 hPa 0,0 l/m 0 min 0 min 0 W/m 19,3 km/h (3 Bft) 97,87 %
21.11.2018 01:14 3,9 C 3,3 C 2,8 C 82 % 1007,9 hPa 0,0 l/m 0 min 0 min 0 W/m 22,5 km/h (4 Bft) 100,00 %
21.11.2018 01:16 3,9 C 3,3 C 2,8 C 82 % 1008,0 hPa 0,0 l/m 0 min 0 min 0 W/m 19,3 km/h (3 Bft) 100,00 %
21.11.2018 01:18 4,0 C 3,3 C 2,8 C 82 % 1008,1 hPa 0,0 l/m 0 min 0 min 0 W/m 19,3 km/h (3 Bft) 100,00 %
21.11.2018 01:20 3,9 C 3,3 C 2,8 C 82 % 1008,1 hPa 0,0 l/m 0 min 0 min 0 W/m 22,5 km/h (4 Bft) 100,00 %
21.11.2018 01:22 3,9 C 3,3 C 2,8 C 82 % 1008,2 hPa 0,0 l/m 0 min 0 min 0 W/m 12,9 km/h (3 Bft) 100,00 %
21.11.2018 01:24 3,9 C 3,3 C 2,8 C 82 % 1008,1 hPa 0,0 l/m 0 min 0 min 0 W/m 12,9 km/h (3 Bft) 100,00 %
21.11.2018 01:26 3,9 C 3,3 C 2,8 C 82 % 1008,2 hPa 0,0 l/m 0 min 0 min 0 W/m 12,9 km/h (3 Bft) 100,00 %
21.11.2018 01:28 3,9 C 3,3 C 2,8 C 82 % 1008,1 hPa 0,0 l/m 0 min 0 min 0 W/m 9,7 km/h (2 Bft) 100,00 %
21.11.2018 01:30 3,9 C 3,3 C 2,8 C 82 % 1008,1 hPa 0,0 l/m 0 min 0 min 0 W/m 12,9 km/h (3 Bft) 100,00 %
21.11.2018 01:32 3,9 C 3,3 C 2,8 C 82 % 1008,1 hPa 0,0 l/m 0 min 0 min 0 W/m 16,1 km/h (3 Bft) 97,87 %
21.11.2018 01:34 3,9 C 3,3 C 2,8 C 82 % 1008,1 hPa 0,0 l/m 0 min 0 min 0 W/m 12,9 km/h (3 Bft) 100,00 %
21.11.2018 01:36 3,9 C 3,3 C 2,8 C 82 % 1008,2 hPa 0,0 l/m 0 min 0 min 0 W/m 16,1 km/h (3 Bft) 100,00 %
21.11.2018 01:38 3,9 C 3,3 C 2,8 C 82 % 1008,2 hPa 0,0 l/m 0 min 0 min 0 W/m 19,3 km/h (3 Bft) 100,00 %
21.11.2018 01:40 3,9 C 3,3 C 2,8 C 82 % 1008,2 hPa 0,0 l/m 0 min 0 min 0 W/m 12,9 km/h (3 Bft) 100,00 %
21.11.2018 01:42 3,9 C 3,3 C 2,8 C 82 % 1008,1 hPa 0,0 l/m 0 min 0 min 0 W/m 6,4 km/h (2 Bft) 100,00 %
21.11.2018 01:44 3,9 C 3,3 C 2,8 C 82 % 1008,1 hPa 0,0 l/m 0 min 0 min 0 W/m 9,7 km/h (2 Bft) 97,87 %
21.11.2018 01:46 3,9 C 3,3 C 2,8 C 82 % 1008,2 hPa 0,0 l/m 0 min 0 min 0 W/m 12,9 km/h (3 Bft) 95,74 %
21.11.2018 01:48 3,9 C 3,3 C 2,8 C 82 % 1008,2 hPa 0,0 l/m 0 min 0 min 0 W/m 22,5 km/h (4 Bft) 100,00 %
21.11.2018 01:50 3,9 C 3,3 C 2,8 C 82 % 1008,3 hPa 0,0 l/m 0 min 0 min 0 W/m 12,9 km/h (3 Bft) 97,83 %
21.11.2018 01:52 3,9 C 3,3 C 2,8 C 82 % 1008,3 hPa 0,0 l/m 0 min 0 min 0 W/m 12,9 km/h (3 Bft) 97,87 %
21.11.2018 01:54 3,9 C 3,3 C 2,2 C 82 % 1008,4 hPa 0,0 l/m 0 min 0 min 0 W/m 12,9 km/h (3 Bft) 97,87 %
21.11.2018 01:56 3,8 C 3,3 C 2,2 C 82 % 1008,5 hPa 0,0 l/m 0 min 0 min 0 W/m 12,9 km/h (3 Bft) 97,87 %
21.11.2018 01:58 3,8 C 3,3 C 2,2 C 82 % 1008,5 hPa 0,0 l/m 0 min 0 min 0 W/m 9,7 km/h (2 Bft) 97,87 %
21.11.2018 02:00 3,8 C 2,8 C 2,2 C 83 % 1008,5 hPa 0,0 l/m 0 min 0 min 0 W/m 6,4 km/h (2 Bft) 100,00 %
21.11.2018 02:02 3,8 C 2,8 C 2,2 C 83 % 1008,6 hPa 0,0 l/m 0 min 0 min 0 W/m 9,7 km/h (2 Bft) 100,00 %
21.11.2018 02:04 3,7 C 2,8 C 2,2 C 83 % 1008,6 hPa 0,0 l/m 0 min 0 min 0 W/m 6,4 km/h (2 Bft) 95,74 %
21.11.2018 02:06 3,7 C 2,8 C 2,2 C 83 % 1008,7 hPa 0,0 l/m 0 min 0 min 0 W/m 9,7 km/h (2 Bft) 97,87 %
21.11.2018 02:08 3,7 C 2,8 C 2,2 C 83 % 1008,7 hPa 0,0 l/m 0 min 0 min 0 W/m 9,7 km/h (2 Bft) 95,83 %
21.11.2018 02:10 3,7 C 2,8 C 2,2 C 83 % 1008,6 hPa 0,0 l/m 0 min 0 min 0 W/m 9,7 km/h (2 Bft) 97,87 %
21.11.2018 02:12 3,6 C 2,8 C 2,2 C 83 % 1008,6 hPa 0,0 l/m 0 min 0 min 0 W/m 6,4 km/h (2 Bft) 97,83 %
21.11.2018 02:14 3,6 C 2,8 C 2,2 C 83 % 1008,6 hPa 0,0 l/m 0 min 0 min 0 W/m 9,7 km/h (2 Bft) 97,87 %
21.11.2018 02:16 3,6 C 2,8 C 2,2 C 83 % 1008,6 hPa 0,0 l/m 0 min 0 min 0 W/m 12,9 km/h (3 Bft) 97,87 %
21.11.2018 02:18 3,6 C 2,8 C 2,2 C 83 % 1008,6 hPa 0,0 l/m 0 min 0 min 0 W/m 9,7 km/h (2 Bft) 100,00 %
21.11.2018 02:20 3,6 C 2,8 C 2,2 C 83 % 1008,7 hPa 0,0 l/m 0 min 0 min 0 W/m 9,7 km/h (2 Bft) 97,87 %
21.11.2018 02:22 3,6 C 2,8 C 2,2 C 83 % 1008,8 hPa 0,0 l/m 0 min 0 min 0 W/m 9,7 km/h (2 Bft) 97,87 %
21.11.2018 02:24 3,6 C 2,8 C 2,2 C 83 % 1008,7 hPa 0,0 l/m 0 min 0 min 0 W/m 6,4 km/h (2 Bft) 95,65 %
21.11.2018 02:26 3,5 C 2,8 C 2,2 C 83 % 1008,8 hPa 0,0 l/m 0 min 0 min 0 W/m 22,5 km/h (4 Bft) 93,62 %
21.11.2018 02:28 3,5 C 2,8 C 2,2 C 83 % 1008,9 hPa 0,0 l/m 0 min 0 min 0 W/m 12,9 km/h (3 Bft) 93,62 %
21.11.2018 02:30 3,5 C 2,8 C 2,2 C 83 % 1008,9 hPa 0,0 l/m 0 min 0 min 0 W/m 12,9 km/h (3 Bft) 95,74 %
21.11.2018 02:32 3,5 C 2,8 C 2,2 C 83 % 1008,8 hPa 0,0 l/m 0 min 0 min 0 W/m 9,7 km/h (2 Bft) 95,74 %
21.11.2018 02:34 3,5 C 2,8 C 2,2 C 83 % 1008,8 hPa 0,0 l/m 0 min 0 min 0 W/m 9,7 km/h (2 Bft) 93,62 %
21.11.2018 02:36 3,5 C 2,8 C 2,2 C 83 % 1008,8 hPa 0,0 l/m 0 min 0 min 0 W/m 12,9 km/h (3 Bft) 97,83 %
21.11.2018 02:38 3,4 C 2,8 C 2,2 C 83 % 1008,7 hPa 0,0 l/m 0 min 0 min 0 W/m 12,9 km/h (3 Bft) 93,62 %
21.11.2018 02:40 3,4 C 2,8 C 2,2 C 83 % 1008,7 hPa 0,0 l/m 0 min 0 min 0 W/m 12,9 km/h (3 Bft) 95,74 %
21.11.2018 02:42 3,4 C 2,8 C 2,2 C 83 % 1008,8 hPa 0,0 l/m 0 min 0 min 0 W/m 12,9 km/h (3 Bft) 95,74 %
21.11.2018 02:44 3,4 C 2,8 C 2,2 C 84 % 1008,8 hPa 0,0 l/m 0 min 0 min 0 W/m 9,7 km/h (2 Bft) 93,62 %
21.11.2018 02:46 3,4 C 2,8 C 2,2 C 83 % 1008,8 hPa 0,0 l/m 0 min 0 min 0 W/m 12,9 km/h (3 Bft) 95,74 %
21.11.2018 02:48 3,4 C 2,8 C 2,2 C 83 % 1008,9 hPa 0,0 l/m 0 min 0 min 0 W/m 12,9 km/h (3 Bft) 95,65 %
21.11.2018 02:50 3,4 C 2,8 C 2,2 C 83 % 1009,0 hPa 0,0 l/m 0 min 0 min 0 W/m 9,7 km/h (2 Bft) 93,62 %
21.11.2018 02:52 3,4 C 2,8 C 2,2 C 83 % 1009,0 hPa 0,0 l/m 0 min 0 min 0 W/m 9,7 km/h (2 Bft) 95,74 %
21.11.2018 02:54 3,4 C 2,8 C 2,2 C 83 % 1009,1 hPa 0,0 l/m 0 min 0 min 0 W/m 9,7 km/h (2 Bft) 95,74 %
21.11.2018 02:56 3,4 C 2,8 C 2,2 C 84 % 1009,2 hPa 0,0 l/m 0 min 0 min 0 W/m 12,9 km/h (3 Bft) 95,74 %
21.11.2018 02:58 3,3 C 2,8 C 1,7 C 84 % 1009,2 hPa 0,0 l/m 0 min 0 min 0 W/m 6,4 km/h (2 Bft) 95,65 %
21.11.2018 03:00 3,3 C 2,2 C 1,7 C 84 % 1009,3 hPa 0,0 l/m 0 min 0 min 0 W/m 6,4 km/h (2 Bft) 95,74 %
21.11.2018 03:02 3,3 C 2,2 C 1,7 C 84 % 1009,3 hPa 0,0 l/m 0 min 0 min 0 W/m 3,2 km/h (1 Bft) 93,62 %
21.11.2018 03:04 3,3 C 2,2 C 1,7 C 84 % 1009,3 hPa 0,0 l/m 0 min 0 min 0 W/m 6,4 km/h (2 Bft) 95,74 %
21.11.2018 03:06 3,3 C 2,2 C 1,7 C 84 % 1009,4 hPa 0,0 l/m 0 min 0 min 0 W/m 3,2 km/h (1 Bft) 93,62 %
21.11.2018 03:08 3,2 C 1,7 C 1,7 C 84 % 1009,4 hPa 0,0 l/m 0 min 0 min 0 W/m 3,2 km/h (1 Bft) 93,62 %
21.11.2018 03:10 3,2 C 1,7 C 1,7 C 84 % 1009,4 hPa 0,0 l/m 0 min 0 min 0 W/m 6,4 km/h (2 Bft) 95,65 %
21.11.2018 03:12 3,2 C 1,7 C 1,7 C 84 % 1009,3 hPa 0,0 l/m 0 min 0 min 0 W/m 6,4 km/h (2 Bft) 95,74 %
21.11.2018 03:14 3,1 C 1,1 C 1,1 C 84 % 1009,4 hPa 0,0 l/m 0 min 0 min 0 W/m 6,4 km/h (2 Bft) 97,87 %
21.11.2018 03:16 3,1 C 1,1 C 1,1 C 84 % 1009,4 hPa 0,0 l/m 0 min 0 min 0 W/m 9,7 km/h (2 Bft) 95,74 %
21.11.2018 03:18 3,1 C 1,1 C 1,1 C 83 % 1009,5 hPa 0,0 l/m 0 min 0 min 0 W/m 3,2 km/h (1 Bft) 97,87 %
21.11.2018 03:20 3,0 C 1,1 C 1,1 C 83 % 1009,5 hPa 0,0 l/m 0 min 0 min 0 W/m 3,2 km/h (1 Bft) 95,74 %
21.11.2018 03:22 2,9 C 0,6 C 1,1 C 83 % 1009,5 hPa 0,0 l/m 0 min 0 min 0 W/m 6,4 km/h (2 Bft) 97,83 %
21.11.2018 03:24 2,9 C 0,6 C 1,1 C 83 % 1009,5 hPa 0,0 l/m 0 min 0 min 0 W/m 6,4 km/h (2 Bft) 97,87 %
21.11.2018 03:26 2,8 C 0,6 C 1,1 C 83 % 1009,6 hPa 0,0 l/m 0 min 0 min 0 W/m 6,4 km/h (2 Bft) 97,87 %
21.11.2018 03:28 2,7 C 0,6 C 0,6 C 83 % 1009,6 hPa 0,0 l/m 0 min 0 min 0 W/m 3,2 km/h (1 Bft) 95,74 %
21.11.2018 03:30 2,7 C 0,0 C 0,6 C 83 % 1009,6 hPa 0,0 l/m 0 min 0 min 0 W/m 6,4 km/h (2 Bft) 97,87 %
21.11.2018 03:32 2,6 C 0,0 C 0,6 C 83 % 1009,7 hPa 0,0 l/m 0 min 0 min 0 W/m 3,2 km/h (1 Bft) 97,87 %
21.11.2018 03:34 2,5 C 0,0 C 0,6 C 83 % 1009,8 hPa 0,0 l/m 0 min 0 min 0 W/m 6,4 km/h (2 Bft) 97,83 %
21.11.2018 03:36 2,4 C 0,0 C 0,6 C 83 % 1009,7 hPa 0,0 l/m 0 min 0 min 0 W/m 3,2 km/h (1 Bft) 98,31 %
21.11.2018 03:38 2,3 C -0,6 C 0,6 C 83 % 1009,7 hPa 0,0 l/m 0 min 0 min 0 W/m 6,4 km/h (2 Bft) 97,14 %
21.11.2018 03:40 2,2 C -0,6 C 0,6 C 83 % 1009,7 hPa 0,0 l/m 0 min 0 min 0 W/m 3,2 km/h (1 Bft) 97,87 %
21.11.2018 03:42 2,2 C -0,6 C 0,6 C 83 % 1009,7 hPa 0,0 l/m 0 min 0 min 0 W/m 3,2 km/h (1 Bft) 97,87 %
21.11.2018 03:44 2,1 C -0,6 C 0,6 C 83 % 1009,7 hPa 0,0 l/m 0 min 0 min 0 W/m 3,2 km/h (1 Bft) 97,87 %
21.11.2018 03:46 2,0 C -0,6 C 0,6 C 83 % 1009,8 hPa 0,0 l/m 0 min 0 min 0 W/m 6,4 km/h (2 Bft) 97,83 %
21.11.2018 03:48 1,9 C -0,6 C 0,6 C 83 % 1009,8 hPa 0,0 l/m 0 min 0 min 0 W/m 6,4 km/h (2 Bft) 95,74 %
21.11.2018 03:50 1,9 C -0,6 C 0,6 C 84 % 1009,8 hPa 0,0 l/m 0 min 0 min 0 W/m 6,4 km/h (2 Bft) 95,74 %
21.11.2018 03:52 1,8 C -0,6 C 0,0 C 84 % 1009,9 hPa 0,0 l/m 0 min 0 min 0 W/m 3,2 km/h (1 Bft) 95,74 %
21.11.2018 03:54 1,7 C -0,6 C 0,6 C 84 % 1009,9 hPa 0,0 l/m 0 min 0 min 0 W/m 6,4 km/h (2 Bft) 97,87 %
21.11.2018 03:56 1,7 C -0,6 C 0,0 C 84 % 1009,8 hPa 0,0 l/m 0 min 0 min 0 W/m 3,2 km/h (1 Bft) 97,87 %
21.11.2018 03:58 1,6 C -0,6 C 0,0 C 84 % 1009,8 hPa 0,0 l/m 0 min 0 min 0 W/m 3,2 km/h (1 Bft) 97,83 %
21.11.2018 04:00 1,5 C -0,6 C 0,0 C 84 % 1009,8 hPa 0,0 l/m 0 min 0 min 0 W/m 6,4 km/h (2 Bft) 97,87 %
21.11.2018 04:02 1,5 C -0,6 C 0,0 C 85 % 1009,8 hPa 0,0 l/m 0 min 0 min 0 W/m 3,2 km/h (1 Bft) 97,06 %
21.11.2018 04:04 1,4 C 0,0 C 0,0 C 85 % 1009,8 hPa 0,0 l/m 0 min 0 min 0 W/m 6,4 km/h (2 Bft) 97,87 %
21.11.2018 04:06 1,3 C 0,0 C 0,0 C 85 % 1009,9 hPa 0,0 l/m 0 min 0 min 0 W/m 3,2 km/h (1 Bft) 95,74 %
21.11.2018 04:08 1,3 C 0,0 C 0,6 C 85 % 1009,9 hPa 0,0 l/m 0 min 0 min 0 W/m 3,2 km/h (1 Bft) 97,83 %
21.11.2018 04:10 1,3 C 0,0 C 0,6 C 86 % 1009,9 hPa 0,0 l/m 0 min 0 min 0 W/m 3,2 km/h (1 Bft) 95,74 %
21.11.2018 04:12 1,2 C 0,0 C 0,0 C 86 % 1010,0 hPa 0,0 l/m 0 min 0 min 0 W/m 6,4 km/h (2 Bft) 97,87 %
21.11.2018 04:14 1,2 C 0,0 C 0,6 C 86 % 1010,0 hPa 0,0 l/m 0 min 0 min 0 W/m 3,2 km/h (1 Bft) 100,00 %
21.11.2018 04:16 1,2 C 0,0 C 0,0 C 86 % 1010,0 hPa 0,0 l/m 0 min 0 min 0 W/m 6,4 km/h (2 Bft) 100,00 %
21.11.2018 04:18 1,1 C -0,6 C 0,0 C 86 % 1010,1 hPa 0,0 l/m 0 min 0 min 0 W/m 6,4 km/h (2 Bft) 100,00 %
21.11.2018 04:20 1,1 C -0,6 C 0,0 C 86 % 1010,2 hPa 0,0 l/m 0 min 0 min 0 W/m 6,4 km/h (2 Bft) 97,83 %
21.11.2018 04:22 1,0 C -0,6 C 0,0 C 87 % 1010,0 hPa 0,0 l/m 0 min 0 min 0 W/m 6,4 km/h (2 Bft) 95,74 %
21.11.2018 04:24 0,9 C -0,6 C 0,0 C 87 % 1010,1 hPa 0,0 l/m 0 min 0 min 0 W/m 6,4 km/h (2 Bft) 100,00 %
21.11.2018 04:26 0,9 C -0,6 C 0,0 C 87 % 1010,1 hPa 0,0 l/m 0 min 0 min 0 W/m 9,7 km/h (2 Bft) 97,87 %
21.11.2018 04:28 0,9 C -0,6 C 0,0 C 87 % 1010,2 hPa 0,0 l/m 0 min 0 min 0 W/m 6,4 km/h (2 Bft) 97,87 %
21.11.2018 04:30 0,8 C -0,6 C 0,0 C 87 % 1010,2 hPa 0,0 l/m 0 min 0 min 0 W/m 6,4 km/h (2 Bft) 97,87 %
21.11.2018 04:32 0,8 C -0,6 C 0,0 C 87 % 1010,2 hPa 0,0 l/m 0 min 0 min 0 W/m 9,7 km/h (2 Bft) 95,65 %
21.11.2018 04:34 0,7 C -0,6 C 0,0 C 87 % 1010,2 hPa 0,0 l/m 0 min 0 min 0 W/m 6,4 km/h (2 Bft) 97,87 %
21.11.2018 04:36 0,7 C -0,6 C 0,0 C 88 % 1010,2 hPa 0,0 l/m 0 min 0 min 0 W/m 6,4 km/h (2 Bft) 95,74 %
21.11.2018 04:38 0,6 C -0,6 C 0,0 C 87 % 1010,3 hPa 0,0 l/m 0 min 0 min 0 W/m 9,7 km/h (2 Bft) 97,92 %
21.11.2018 04:40 0,6 C -0,6 C 0,0 C 88 % 1010,3 hPa 0,0 l/m 0 min 0 min 0 W/m 6,4 km/h (2 Bft) 95,74 %
21.11.2018 04:42 0,5 C -0,6 C 0,0 C 88 % 1010,2 hPa 0,0 l/m 0 min 0 min 0 W/m 16,1 km/h (3 Bft) 95,74 %
21.11.2018 04:44 0,5 C -0,6 C 0,0 C 88 % 1010,3 hPa 0,0 l/m 0 min 0 min 0 W/m 9,7 km/h (2 Bft) 97,83 %
21.11.2018 04:46 0,5 C -0,6 C 0,0 C 88 % 1010,4 hPa 0,0 l/m 0 min 0 min 0 W/m 6,4 km/h (2 Bft) 97,87 %
21.11.2018 04:48 0,5 C -0,6 C 0,0 C 88 % 1010,4 hPa 0,0 l/m 0 min 0 min 0 W/m 6,4 km/h (2 Bft) 97,87 %
21.11.2018 04:50 0,5 C -0,6 C 0,0 C 88 % 1010,4 hPa 0,0 l/m 0 min 0 min 0 W/m 6,4 km/h (2 Bft) 95,74 %
21.11.2018 04:52 0,5 C -0,6 C 0,0 C 89 % 1010,4 hPa 0,0 l/m 0 min 0 min 0 W/m 6,4 km/h (2 Bft) 97,87 %
21.11.2018 04:54 0,4 C -0,6 C 0,0 C 89 % 1010,5 hPa 0,0 l/m 0 min 0 min 0 W/m 6,4 km/h (2 Bft) 97,83 %
21.11.2018 04:56 0,4 C -0,6 C 0,0 C 89 % 1010,4 hPa 0,0 l/m 0 min 0 min 0 W/m 6,4 km/h (2 Bft) 97,87 %
21.11.2018 04:58 0,4 C -0,6 C 0,0 C 89 % 1010,5 hPa 0,0 l/m 0 min 0 min 0 W/m 6,4 km/h (2 Bft) 95,74 %
21.11.2018 05:00 0,4 C -1,1 C 0,0 C 89 % 1010,4 hPa 0,0 l/m 0 min 0 min 0 W/m 6,4 km/h (2 Bft) 95,74 %
21.11.2018 05:02 0,3 C -0,6 C 0,0 C 89 % 1010,5 hPa 0,0 l/m 0 min 0 min 0 W/m 6,4 km/h (2 Bft) 97,87 %
21.11.2018 05:04 0,3 C -0,6 C 0,0 C 89 % 1010,6 hPa 0,0 l/m 0 min 0 min 0 W/m 6,4 km/h (2 Bft) 97,87 %
21.11.2018 05:06 0,3 C -1,1 C 0,0 C 89 % 1010,6 hPa 0,0 l/m 0 min 0 min 0 W/m 3,2 km/h (1 Bft) 97,83 %
21.11.2018 05:08 0,3 C -1,1 C 0,0 C 89 % 1010,6 hPa 0,0 l/m 0 min 0 min 0 W/m 3,2 km/h (1 Bft) 97,87 %
21.11.2018 05:10 0,2 C -1,1 C 0,0 C 89 % 1010,7 hPa 0,0 l/m 0 min 0 min 0 W/m 9,7 km/h (2 Bft) 100,00 %
21.11.2018 05:12 0,2 C -1,1 C 0,0 C 90 % 1010,7 hPa 0,0 l/m 0 min 0 min 0 W/m 6,4 km/h (2 Bft) 100,00 %
21.11.2018 05:14 0,2 C -1,1 C 0,0 C 89 % 1010,8 hPa 0,0 l/m 0 min 0 min 0 W/m 0,0 km/h (0 Bft) 97,87 %
21.11.2018 05:16 0,2 C -1,1 C -0,6 C 89 % 1010,8 hPa 0,0 l/m 0 min 0 min 0 W/m 0,0 km/h (0 Bft) 100,00 %
21.11.2018 05:18 0,2 C -1,1 C -0,6 C 90 % 1010,8 hPa 0,0 l/m 0 min 0 min 0 W/m 0,0 km/h (0 Bft) 95,65 %
21.11.2018 05:20 0,2 C -1,1 C -0,6 C 90 % 1010,7 hPa 0,0 l/m 0 min 0 min 0 W/m 9,7 km/h (2 Bft) 100,00 %
21.11.2018 05:22 0,1 C -1,1 C -0,6 C 90 % 1010,7 hPa 0,0 l/m 0 min 0 min 0 W/m 6,4 km/h (2 Bft) 100,00 %
21.11.2018 05:24 0,1 C -1,1 C -0,6 C 90 % 1010,8 hPa 0,0 l/m 0 min 0 min 0 W/m 6,4 km/h (2 Bft) 100,00 %
21.11.2018 05:26 0,1 C -1,1 C -0,6 C 90 % 1011,0 hPa 0,0 l/m 0 min 0 min 0 W/m 3,2 km/h (1 Bft) 100,00 %
21.11.2018 05:28 0,1 C -1,1 C -0,6 C 90 % 1011,1 hPa 0,0 l/m 0 min 0 min 0 W/m 3,2 km/h (1 Bft) 97,87 %
21.11.2018 05:30 0,0 C -1,1 C -0,6 C 90 % 1011,1 hPa 0,0 l/m 0 min 0 min 0 W/m 3,2 km/h (1 Bft) 100,00 %
21.11.2018 05:32 0,0 C -1,1 C -0,6 C 90 % 1011,0 hPa 0,0 l/m 0 min 0 min 0 W/m 3,2 km/h (1 Bft) 100,00 %
21.11.2018 05:34 0,0 C -1,1 C -0,6 C 90 % 1011,0 hPa 0,0 l/m 0 min 0 min 0 W/m 0,0 km/h (0 Bft) 100,00 %
21.11.2018 05:36 -0,1 C -1,7 C -0,6 C 90 % 1011,2 hPa 0,0 l/m 0 min 0 min 0 W/m 0,0 km/h (0 Bft) 100,00 %
21.11.2018 05:38 -0,1 C -1,7 C -0,6 C 90 % 1011,1 hPa 0,0 l/m 0 min 0 min 0 W/m 0,0 km/h (0 Bft) 95,74 %
21.11.2018 05:40 -0,1 C -1,7 C -0,6 C 90 % 1011,0 hPa 0,0 l/m 0 min 0 min 0 W/m 0,0 km/h (0 Bft) 97,87 %
21.11.2018 05:42 -0,1 C -1,1 C -0,6 C 90 % 1011,1 hPa 0,0 l/m 0 min 0 min 0 W/m 0,0 km/h (0 Bft) 97,87 %
21.11.2018 05:44 -0,1 C -1,1 C -0,6 C 90 % 1011,1 hPa 0,0 l/m 0 min 0 min 0 W/m 0,0 km/h (0 Bft) 97,87 %
21.11.2018 05:46 -0,1 C -1,7 C -1,1 C 90 % 1011,2 hPa 0,0 l/m 0 min 0 min 0 W/m 0,0 km/h (0 Bft) 97,83 %
21.11.2018 05:48 -0,2 C -1,7 C -1,1 C 90 % 1011,1 hPa 0,0 l/m 0 min 0 min 0 W/m 0,0 km/h (0 Bft) 97,87 %
21.11.2018 05:50 -0,2 C -1,7 C -1,1 C 90 % 1011,1 hPa 0,0 l/m 0 min 0 min 0 W/m 0,0 km/h (0 Bft) 97,87 %
21.11.2018 05:52 -0,2 C -1,7 C -1,1 C 90 % 1011,3 hPa 0,0 l/m 0 min 0 min 0 W/m 0,0 km/h (0 Bft) 93,62 %
21.11.2018 05:54 -0,2 C -1,1 C -1,1 C 90 % 1011,2 hPa 0,0 l/m 0 min 0 min 0 W/m 0,0 km/h (0 Bft) 95,74 %
21.11.2018 05:56 -0,3 C -1,1 C -1,1 C 90 % 1011,2 hPa 0,0 l/m 0 min 0 min 0 W/m 0,0 km/h (0 Bft) 93,48 %
21.11.2018 05:58 -0,3 C -1,1 C -0,6 C 90 % 1011,1 hPa 0,0 l/m 0 min 0 min 0 W/m 0,0 km/h (0 Bft) 97,87 %
21.11.2018 06:00 -0,3 C -1,1 C -0,6 C 90 % 1011,1 hPa 0,0 l/m 0 min 0 min 0 W/m 0,0 km/h (0 Bft) 97,87 %
21.11.2018 06:02 -0,3 C -1,1 C -0,6 C 90 % 1011,1 hPa 0,0 l/m 0 min 0 min 0 W/m 0,0 km/h (0 Bft) 95,74 %
21.11.2018 06:04 -0,3 C -1,1 C -0,6 C 90 % 1011,2 hPa 0,0 l/m 0 min 0 min 0 W/m 0,0 km/h (0 Bft) 97,87 %
21.11.2018 06:08 -0,3 C -1,1 C -0,6 C 91 % 1011,4 hPa 0,0 l/m 0 min 0 min 0 W/m 0,0 km/h (0 Bft) 96,81 %
21.11.2018 06:10 -0,3 C -1,1 C -0,6 C 91 % 1011,4 hPa 0,0 l/m 0 min 0 min 0 W/m 0,0 km/h (0 Bft) 97,83 %
21.11.2018 06:12 -0,3 C -1,1 C -0,6 C 91 % 1011,4 hPa 0,0 l/m 0 min 0 min 0 W/m 0,0 km/h (0 Bft) 95,74 %
21.11.2018 06:14 -0,3 C -1,1 C -0,6 C 91 % 1011,6 hPa 0,0 l/m 0 min 0 min 0 W/m 0,0 km/h (0 Bft) 97,87 %
21.11.2018 06:16 -0,3 C -1,1 C -0,6 C 91 % 1011,6 hPa 0,0 l/m 0 min 0 min 0 W/m 0,0 km/h (0 Bft) 97,87 %
21.11.2018 06:18 -0,3 C -1,1 C -0,6 C 91 % 1011,6 hPa 0,0 l/m 0 min 0 min 0 W/m 0,0 km/h (0 Bft) 95,74 %
21.11.2018 06:20 -0,3 C -1,1 C -0,6 C 91 % 1011,6 hPa 0,0 l/m 0 min 0 min 0 W/m 0,0 km/h (0 Bft) 95,65 %
21.11.2018 06:22 -0,4 C -1,1 C -0,6 C 91 % 1011,5 hPa 0,0 l/m 0 min 0 min 0 W/m 0,0 km/h (0 Bft) 93,62 %
21.11.2018 06:24 -0,3 C -1,1 C -0,6 C 91 % 1011,4 hPa 0,0 l/m 0 min 0 min 0 W/m 0,0 km/h (0 Bft) 95,74 %
21.11.2018 06:26 -0,4 C -1,1 C -0,6 C 91 % 1011,5 hPa 0,0 l/m 0 min 0 min 0 W/m 0,0 km/h (0 Bft) 97,87 %
21.11.2018 06:28 -0,4 C -1,1 C -0,6 C 91 % 1011,5 hPa 0,0 l/m 0 min 0 min 0 W/m 0,0 km/h (0 Bft) 97,87 %
21.11.2018 06:30 -0,4 C -1,7 C -0,6 C 91 % 1011,4 hPa 0,0 l/m 0 min 0 min 0 W/m 0,0 km/h (0 Bft) 95,74 %
21.11.2018 06:32 -0,4 C -1,7 C -0,6 C 91 % 1011,4 hPa 0,0 l/m 0 min 0 min 0 W/m 3,2 km/h (1 Bft) 97,83 %
21.11.2018 06:34 -0,4 C -1,7 C -0,6 C 91 % 1011,5 hPa 0,0 l/m 0 min 0 min 0 W/m 6,4 km/h (2 Bft) 85,11 %
21.11.2018 06:36 -0,4 C -1,7 C -0,6 C 91 % 1011,5 hPa 0,0 l/m 0 min 0 min 0 W/m 3,2 km/h (1 Bft) 97,87 %
21.11.2018 06:38 -0,4 C -1,7 C -1,1 C 91 % 1011,5 hPa 0,0 l/m 0 min 0 min 0 W/m 3,2 km/h (1 Bft) 95,74 %
21.11.2018 06:40 -0,5 C -1,7 C -0,6 C 91 % 1011,4 hPa 0,0 l/m 0 min 0 min 0 W/m 6,4 km/h (2 Bft) 97,87 %
21.11.2018 06:42 -0,5 C -1,7 C -0,6 C 91 % 1011,4 hPa 0,0 l/m 0 min 0 min 0 W/m 6,4 km/h (2 Bft) 97,87 %
21.11.2018 06:44 -0,5 C -1,7 C -0,6 C 91 % 1011,4 hPa 0,0 l/m 0 min 0 min 0 W/m 6,4 km/h (2 Bft) 97,83 %
21.11.2018 06:46 -0,5 C -1,7 C -0,6 C 91 % 1011,4 hPa 0,0 l/m 0 min 0 min 0 W/m 3,2 km/h (1 Bft) 97,87 %
21.11.2018 06:48 -0,5 C -1,7 C -1,1 C 92 % 1011,4 hPa 0,0 l/m 0 min 0 min 0 W/m 3,2 km/h (1 Bft) 93,62 %
21.11.2018 06:50 -0,6 C -1,7 C -1,1 C 92 % 1011,5 hPa 0,0 l/m 0 min 0 min 0 W/m 3,2 km/h (1 Bft) 97,87 %
21.11.2018 06:52 -0,6 C -1,7 C -1,1 C 92 % 1011,5 hPa 0,0 l/m 0 min 0 min 0 W/m 6,4 km/h (2 Bft) 97,87 %
21.11.2018 06:54 -0,6 C -1,7 C -1,1 C 91 % 1011,6 hPa 0,0 l/m 0 min 0 min 0 W/m 6,4 km/h (2 Bft) 97,87 %
21.11.2018 06:56 -0,6 C -1,7 C -1,1 C 92 % 1011,8 hPa 0,0 l/m 0 min 0 min 0 W/m 6,4 km/h (2 Bft) 95,65 %
21.11.2018 06:58 -0,6 C -1,7 C -1,1 C 92 % 1011,7 hPa 0,0 l/m 0 min 0 min 0 W/m 3,2 km/h (1 Bft) 97,87 %
21.11.2018 07:00 -0,6 C -1,7 C -1,1 C 92 % 1011,7 hPa 0,0 l/m 0 min 0 min 0 W/m 3,2 km/h (1 Bft) 97,87 %
21.11.2018 07:02 -0,6 C -1,7 C -1,1 C 92 % 1011,8 hPa 0,0 l/m 0 min 0 min 0 W/m 3,2 km/h (1 Bft) 97,87 %
21.11.2018 07:04 -0,6 C -1,7 C -1,1 C 92 % 1011,8 hPa 0,0 l/m 0 min 0 min 0 W/m 3,2 km/h (1 Bft) 97,87 %
21.11.2018 07:06 -0,7 C -1,7 C -1,1 C 92 % 1011,9 hPa 0,0 l/m 0 min 0 min 0 W/m 3,2 km/h (1 Bft) 100,00 %
21.11.2018 07:08 -0,7 C -1,7 C -1,1 C 92 % 1011,9 hPa 0,0 l/m 0 min 0 min 0 W/m 3,2 km/h (1 Bft) 97,87 %
21.11.2018 07:10 -0,7 C -1,7 C -1,1 C 92 % 1012,0 hPa 0,0 l/m 0 min 0 min 0 W/m 6,4 km/h (2 Bft) 100,00 %
21.11.2018 07:12 -0,7 C -1,7 C -1,1 C 92 % 1012,0 hPa 0,0 l/m 0 min 0 min 0 W/m 3,2 km/h (1 Bft) 100,00 %
21.11.2018 07:14 -0,7 C -1,7 C -1,1 C 92 % 1011,9 hPa 0,0 l/m 0 min 0 min 0 W/m 6,4 km/h (2 Bft) 100,00 %
21.11.2018 07:16 -0,7 C -1,7 C -1,1 C 92 % 1011,9 hPa 0,0 l/m 0 min 0 min 0 W/m 6,4 km/h (2 Bft) 100,00 %
21.11.2018 07:18 -0,7 C -1,7 C -1,1 C 92 % 1011,9 hPa 0,0 l/m 0 min 0 min 0 W/m 0,0 km/h (0 Bft) 100,00 %
21.11.2018 07:20 -0,8 C -1,7 C -1,1 C 92 % 1012,0 hPa 0,0 l/m 0 min 0 min 0 W/m 3,2 km/h (1 Bft) 100,00 %
21.11.2018 07:22 -0,8 C -1,7 C -1,1 C 92 % 1012,1 hPa 0,0 l/m 0 min 0 min 0 W/m 0,0 km/h (0 Bft) 100,00 %
21.11.2018 07:24 -0,8 C -1,7 C -1,1 C 92 % 1012,0 hPa 0,0 l/m 0 min 0 min 0 W/m 3,2 km/h (1 Bft) 97,87 %
21.11.2018 07:26 -0,8 C -1,7 C -1,7 C 92 % 1012,0 hPa 0,0 l/m 0 min 0 min 0 W/m 3,2 km/h (1 Bft) 98,11 %
21.11.2018 07:28 -0,8 C -1,7 C -1,1 C 92 % 1012,1 hPa 0,0 l/m 0 min 0 min 0 W/m 0,0 km/h (0 Bft) 97,37 %
21.11.2018 07:30 -0,8 C -1,7 C -1,1 C 92 % 1012,0 hPa 0,0 l/m 0 min 0 min 0 W/m 3,2 km/h (1 Bft) 97,87 %
21.11.2018 07:32 -0,8 C -1,7 C -1,1 C 92 % 1012,0 hPa 0,0 l/m 0 min 0 min 0 W/m 6,4 km/h (2 Bft) 97,83 %
21.11.2018 07:34 -0,9 C -1,7 C -1,1 C 92 % 1012,0 hPa 0,0 l/m 0 min 0 min 0 W/m 3,2 km/h (1 Bft) 95,74 %
21.11.2018 07:36 -0,9 C -2,2 C -1,1 C 92 % 1012,1 hPa 0,0 l/m 0 min 0 min 0 W/m 0,0 km/h (0 Bft) 98,31 %
21.11.2018 07:38 -0,9 C -2,2 C -1,7 C 92 % 1012,1 hPa 0,0 l/m 0 min 0 min 0 W/m 0,0 km/h (0 Bft) 97,14 %
21.11.2018 07:40 -0,9 C -2,2 C -1,7 C 92 % 1012,2 hPa 0,0 l/m 0 min 0 min 0 W/m 0,0 km/h (0 Bft) 97,87 %
21.11.2018 07:42 -0,9 C -1,7 C -1,7 C 92 % 1012,2 hPa 0,0 l/m 0 min 0 min 0 W/m 3,2 km/h (1 Bft) 97,87 %
21.11.2018 07:44 -0,9 C -1,7 C -1,7 C 92 % 1012,2 hPa 0,0 l/m 0 min 0 min 0 W/m 0,0 km/h (0 Bft) 97,83 %
21.11.2018 07:46 -0,9 C -1,7 C -1,7 C 92 % 1012,2 hPa 0,0 l/m 0 min 0 min 0 W/m 3,2 km/h (1 Bft) 97,87 %
21.11.2018 07:48 -1,0 C -1,7 C -1,1 C 92 % 1012,3 hPa 0,0 l/m 0 min 0 min 0 W/m 3,2 km/h (1 Bft) 97,92 %
21.11.2018 07:50 -1,0 C -1,7 C -1,1 C 92 % 1012,3 hPa 0,0 l/m 0 min 0 min 0 W/m 3,2 km/h (1 Bft) 97,87 %
21.11.2018 07:52 -1,0 C -1,7 C -1,1 C 92 % 1012,4 hPa 0,0 l/m 0 min 0 min 0 W/m 3,2 km/h (1 Bft) 97,83 %
21.11.2018 07:54 -1,0 C -1,7 C -1,1 C 92 % 1012,4 hPa 0,0 l/m 0 min 0 min 0 W/m 3,2 km/h (1 Bft) 97,87 %
21.11.2018 07:56 -1,0 C -1,7 C -1,1 C 92 % 1012,4 hPa 0,0 l/m 0 min 0 min 0 W/m 3,2 km/h (1 Bft) 97,87 %
21.11.2018 07:58 -1,0 C -1,7 C -1,1 C 92 % 1012,4 hPa 0,0 l/m 0 min 0 min 2 W/m 3,2 km/h (1 Bft) 97,87 %
21.11.2018 08:00 -1,0 C -1,7 C -0,6 C 92 % 1012,4 hPa 0,0 l/m 0 min 0 min 5 W/m 3,2 km/h (1 Bft) 97,87 %
21.11.2018 08:02 -1,1 C -1,7 C -0,6 C 92 % 1012,4 hPa 0,0 l/m 0 min 0 min 5 W/m 0,0 km/h (0 Bft) 97,83 %
21.11.2018 08:04 -1,0 C -1,7 C -0,6 C 92 % 1012,4 hPa 0,0 l/m 0 min 0 min 5 W/m 0,0 km/h (0 Bft) 97,87 %
21.11.2018 08:06 -1,0 C -1,7 C -1,1 C 93 % 1012,4 hPa 0,0 l/m 0 min 0 min 5 W/m 0,0 km/h (0 Bft) 96,61 %
21.11.2018 08:08 -1,0 C -1,7 C -1,1 C 93 % 1012,4 hPa 0,0 l/m 0 min 0 min 5 W/m 0,0 km/h (0 Bft) 100,00 %
21.11.2018 08:10 -1,0 C -1,7 C -1,1 C 93 % 1012,5 hPa 0,0 l/m 0 min 0 min 5 W/m 0,0 km/h (0 Bft) 95,74 %
21.11.2018 08:12 -1,0 C -1,7 C -1,1 C 93 % 1012,7 hPa 0,0 l/m 0 min 0 min 5 W/m 0,0 km/h (0 Bft) 95,74 %
21.11.2018 08:14 -1,0 C -1,7 C -1,1 C 93 % 1012,6 hPa 0,0 l/m 0 min 0 min 7 W/m 0,0 km/h (0 Bft) 95,65 %
21.11.2018 08:16 -1,0 C -1,7 C -1,1 C 93 % 1012,7 hPa 0,0 l/m 0 min 0 min 7 W/m 0,0 km/h (0 Bft) 97,87 %
21.11.2018 08:18 -1,0 C -1,7 C -1,1 C 93 % 1012,7 hPa 0,0 l/m 0 min 0 min 7 W/m 0,0 km/h (0 Bft) 95,74 %
21.11.2018 08:20 -1,0 C -1,7 C -1,1 C 93 % 1012,8 hPa 0,0 l/m 0 min 0 min 7 W/m 0,0 km/h (0 Bft) 97,87 %
21.11.2018 08:22 -0,9 C -1,7 C -1,1 C 93 % 1012,8 hPa 0,0 l/m 0 min 0 min 7 W/m 0,0 km/h (0 Bft) 95,74 %
21.11.2018 08:24 -1,0 C -1,7 C -1,1 C 93 % 1012,9 hPa 0,0 l/m 0 min 0 min 8 W/m 0,0 km/h (0 Bft) 97,87 %
21.11.2018 08:26 -1,0 C -1,7 C -1,1 C 93 % 1012,9 hPa 0,0 l/m 0 min 0 min 9 W/m 0,0 km/h (0 Bft) 95,65 %
21.11.2018 08:28 -1,0 C -1,7 C -1,1 C 93 % 1012,8 hPa 0,0 l/m 0 min 0 min 10 W/m 0,0 km/h (0 Bft) 95,74 %
21.11.2018 08:30 -1,0 C -1,7 C -1,1 C 93 % 1012,8 hPa 0,0 l/m 0 min 0 min 11 W/m 0,0 km/h (0 Bft) 97,87 %
21.11.2018 08:32 -1,0 C -1,7 C -1,1 C 93 % 1012,9 hPa 0,0 l/m 0 min 0 min 12 W/m 0,0 km/h (0 Bft) 89,36 %
21.11.2018 08:34 -1,0 C -1,7 C -1,1 C 93 % 1012,9 hPa 0,0 l/m 0 min 0 min 15 W/m 0,0 km/h (0 Bft) 95,83 %
21.11.2018 08:36 -1,0 C -1,7 C -1,1 C 93 % 1012,9 hPa 0,0 l/m 0 min 0 min 18 W/m 0,0 km/h (0 Bft) 95,74 %
21.11.2018 08:38 -1,0 C -1,7 C -1,1 C 93 % 1012,9 hPa 0,0 l/m 0 min 0 min 18 W/m 0,0 km/h (0 Bft) 95,74 %
21.11.2018 08:40 -1,0 C -1,7 C -1,1 C 93 % 1012,9 hPa 0,0 l/m 0 min 0 min 19 W/m 3,2 km/h (1 Bft) 95,74 %
21.11.2018 08:42 -1,0 C -1,7 C -1,1 C 93 % 1012,9 hPa 0,0 l/m 0 min 0 min 21 W/m 3,2 km/h (1 Bft) 95,74 %
21.11.2018 08:44 -1,0 C -1,1 C -1,1 C 93 % 1013,1 hPa 0,0 l/m 0 min 0 min 23 W/m 3,2 km/h (1 Bft) 93,62 %
21.11.2018 08:46 -1,0 C -1,1 C -1,1 C 93 % 1013,1 hPa 0,0 l/m 0 min 0 min 25 W/m 3,2 km/h (1 Bft) 95,74 %
21.11.2018 08:48 -1,0 C -1,1 C -1,1 C 93 % 1013,2 hPa 0,0 l/m 0 min 0 min 26 W/m 3,2 km/h (1 Bft) 93,48 %
21.11.2018 08:50 -1,1 C -1,1 C -1,1 C 93 % 1013,2 hPa 0,0 l/m 0 min 0 min 26 W/m 3,2 km/h (1 Bft) 93,62 %
21.11.2018 08:52 -1,0 C -1,1 C -1,1 C 93 % 1013,2 hPa 0,0 l/m 0 min 0 min 26 W/m 6,4 km/h (2 Bft) 95,74 %
21.11.2018 08:54 -1,0 C -1,1 C -0,6 C 93 % 1013,2 hPa 0,0 l/m 0 min 0 min 27 W/m 0,0 km/h (0 Bft) 93,62 %
21.11.2018 08:56 -1,0 C -1,1 C -0,6 C 93 % 1013,1 hPa 0,0 l/m 0 min 0 min 30 W/m 0,0 km/h (0 Bft) 95,74 %
21.11.2018 08:58 -1,0 C -1,1 C -0,6 C 93 % 1013,1 hPa 0,0 l/m 0 min 0 min 28 W/m 3,2 km/h (1 Bft) 95,74 %
21.11.2018 09:00 -1,0 C -1,1 C -0,6 C 93 % 1013,1 hPa 0,0 l/m 0 min 0 min 30 W/m 3,2 km/h (1 Bft) 93,48 %
21.11.2018 09:02 -0,9 C -1,1 C -0,6 C 93 % 1013,2 hPa 0,0 l/m 0 min 0 min 32 W/m 3,2 km/h (1 Bft) 95,74 %
21.11.2018 09:04 -0,9 C -0,6 C -0,6 C 93 % 1013,2 hPa 0,0 l/m 0 min 0 min 33 W/m 6,4 km/h (2 Bft) 93,62 %
21.11.2018 09:06 -0,9 C -0,6 C -0,6 C 93 % 1013,3 hPa 0,0 l/m 0 min 0 min 38 W/m 3,2 km/h (1 Bft) 93,62 %
21.11.2018 09:08 -0,9 C -0,6 C -0,6 C 94 % 1013,3 hPa 0,0 l/m 0 min 0 min 56 W/m 3,2 km/h (1 Bft) 95,74 %
21.11.2018 09:10 -0,9 C -0,6 C -0,6 C 94 % 1013,4 hPa 0,0 l/m 0 min 0 min 41 W/m 0,0 km/h (0 Bft) 89,36 %
21.11.2018 09:12 -0,9 C 0,0 C -0,6 C 94 % 1013,4 hPa 0,0 l/m 0 min 0 min 42 W/m 0,0 km/h (0 Bft) 97,83 %
21.11.2018 09:14 -0,8 C 1,1 C -0,6 C 94 % 1013,4 hPa 0,0 l/m 0 min 0 min 67 W/m 0,0 km/h (0 Bft) 100,00 %
21.11.2018 09:16 -0,8 C 1,7 C -0,6 C 94 % 1013,5 hPa 0,0 l/m 2 min 0 min 91 W/m 0,0 km/h (0 Bft) 93,62 %
21.11.2018 09:18 -0,8 C 2,8 C -0,6 C 94 % 1013,5 hPa 0,0 l/m 2 min 0 min 97 W/m 0,0 km/h (0 Bft) 100,00 %
21.11.2018 09:20 -0,8 C 3,3 C -0,6 C 94 % 1013,5 hPa 0,0 l/m 2 min 0 min 101 W/m 0,0 km/h (0 Bft) 95,74 %
21.11.2018 09:22 -0,7 C 3,3 C -0,6 C 94 % 1013,5 hPa 0,0 l/m 2 min 0 min 104 W/m 0,0 km/h (0 Bft) 97,87 %
21.11.2018 09:24 -0,6 C 3,9 C -0,6 C 94 % 1013,5 hPa 0,0 l/m 2 min 0 min 108 W/m 0,0 km/h (0 Bft) 100,00 %
21.11.2018 09:26 -0,6 C 3,9 C 0,0 C 94 % 1013,5 hPa 0,0 l/m 2 min 0 min 112 W/m 0,0 km/h (0 Bft) 97,87 %
21.11.2018 09:28 -0,4 C 3,9 C 0,0 C 94 % 1013,5 hPa 0,0 l/m 2 min 0 min 115 W/m 0,0 km/h (0 Bft) 100,00 %
21.11.2018 09:30 -0,3 C 3,9 C 0,0 C 94 % 1013,6 hPa 0,0 l/m 2 min 0 min 119 W/m 0,0 km/h (0 Bft) 100,00 %
21.11.2018 09:32 -0,3 C 4,4 C 0,0 C 94 % 1013,6 hPa 0,0 l/m 2 min 0 min 124 W/m 0,0 km/h (0 Bft) 100,00 %
21.11.2018 09:34 -0,2 C 5,0 C 0,0 C 94 % 1013,6 hPa 0,0 l/m 2 min 0 min 130 W/m 0,0 km/h (0 Bft) 100,00 %
21.11.2018 09:36 -0,1 C 4,4 C 0,0 C 94 % 1013,6 hPa 0,0 l/m 2 min 0 min 136 W/m 6,4 km/h (2 Bft) 100,00 %
21.11.2018 09:38 -0,1 C 3,3 C 0,0 C 94 % 1013,6 hPa 0,0 l/m 2 min 0 min 138 W/m 6,4 km/h (2 Bft) 100,00 %
21.11.2018 09:40 0,0 C 2,8 C 0,0 C 95 % 1013,6 hPa 0,0 l/m 2 min 0 min 139 W/m 6,4 km/h (2 Bft) 97,87 %
21.11.2018 09:42 0,1 C 2,2 C 0,0 C 94 % 1013,6 hPa 0,0 l/m 2 min 0 min 127 W/m 6,4 km/h (2 Bft) 100,00 %
21.11.2018 09:44 0,2 C 2,2 C 0,0 C 95 % 1013,6 hPa 0,0 l/m 2 min 0 min 98 W/m 6,4 km/h (2 Bft) 100,00 %
21.11.2018 09:46 0,2 C 1,7 C 0,6 C 95 % 1013,6 hPa 0,0 l/m 0 min 0 min 78 W/m 6,4 km/h (2 Bft) 100,00 %
21.11.2018 09:48 0,3 C 1,7 C 0,6 C 95 % 1013,6 hPa 0,0 l/m 0 min 0 min 62 W/m 6,4 km/h (2 Bft) 97,83 %
21.11.2018 09:50 0,4 C 1,7 C 0,6 C 95 % 1013,6 hPa 0,0 l/m 0 min 0 min 62 W/m 6,4 km/h (2 Bft) 100,00 %
21.11.2018 09:52 0,4 C 2,2 C 0,6 C 95 % 1013,6 hPa 0,0 l/m 0 min 0 min 72 W/m 6,4 km/h (2 Bft) 97,87 %
21.11.2018 09:54 0,5 C 3,3 C 0,6 C 95 % 1013,7 hPa 0,0 l/m 2 min 0 min 115 W/m 6,4 km/h (2 Bft) 100,00 %
21.11.2018 09:56 0,5 C 3,9 C 0,6 C 95 % 1013,7 hPa 0,0 l/m 2 min 0 min 147 W/m 9,7 km/h (2 Bft) 100,00 %
21.11.2018 09:58 0,5 C 3,9 C 0,6 C 95 % 1013,8 hPa 0,0 l/m 2 min 0 min 138 W/m 6,4 km/h (2 Bft) 100,00 %
21.11.2018 10:00 0,6 C 3,9 C 0,6 C 95 % 1013,9 hPa 0,0 l/m 2 min 0 min 160 W/m 6,4 km/h (2 Bft) 97,87 %
21.11.2018 10:02 0,7 C 4,4 C 0,6 C 95 % 1013,9 hPa 0,0 l/m 2 min 0 min 177 W/m 6,4 km/h (2 Bft) 100,00 %
21.11.2018 10:04 0,8 C 5,6 C 0,6 C 95 % 1013,9 hPa 0,0 l/m 2 min 0 min 184 W/m 12,9 km/h (3 Bft) 100,00 %
21.11.2018 10:06 0,9 C 6,1 C 0,6 C 95 % 1014,0 hPa 0,0 l/m 2 min 0 min 189 W/m 6,4 km/h (2 Bft) 95,74 %
21.11.2018 10:08 1,0 C 6,7 C 1,1 C 95 % 1014,0 hPa 0,0 l/m 2 min 0 min 193 W/m 6,4 km/h (2 Bft) 97,87 %
21.11.2018 10:10 1,1 C 7,2 C 1,1 C 95 % 1014,1 hPa 0,0 l/m 2 min 0 min 197 W/m 3,2 km/h (1 Bft) 100,00 %
21.11.2018 10:12 1,2 C 7,2 C 1,1 C 95 % 1014,0 hPa 0,0 l/m 2 min 0 min 199 W/m 6,4 km/h (2 Bft) 100,00 %
21.11.2018 10:14 1,3 C 7,2 C 1,1 C 95 % 1014,1 hPa 0,0 l/m 2 min 0 min 201 W/m 6,4 km/h (2 Bft) 97,83 %
21.11.2018 10:16 1,4 C 7,2 C 1,1 C 95 % 1014,1 hPa 0,0 l/m 2 min 0 min 204 W/m 3,2 km/h (1 Bft) 100,00 %
21.11.2018 10:18 1,5 C 7,2 C 1,1 C 95 % 1014,2 hPa 0,0 l/m 2 min 0 min 209 W/m 6,4 km/h (2 Bft) 100,00 %
21.11.2018 10:20 1,6 C 7,2 C 1,1 C 95 % 1014,3 hPa 0,0 l/m 2 min 0 min 210 W/m 6,4 km/h (2 Bft) 100,00 %
21.11.2018 10:22 1,7 C 7,2 C 1,1 C 95 % 1014,3 hPa 0,0 l/m 2 min 0 min 212 W/m 6,4 km/h (2 Bft) 97,87 %
21.11.2018 10:24 1,8 C 7,8 C 1,1 C 95 % 1014,3 hPa 0,0 l/m 2 min 0 min 216 W/m 6,4 km/h (2 Bft) 97,87 %
21.11.2018 10:26 1,9 C 7,8 C 1,1 C 95 % 1014,3 hPa 0,0 l/m 2 min 0 min 225 W/m 6,4 km/h (2 Bft) 97,83 %
21.11.2018 10:28 2,0 C 7,2 C 1,1 C 95 % 1014,3 hPa 0,0 l/m 2 min 0 min 228 W/m 6,4 km/h (2 Bft) 97,87 %
21.11.2018 10:30 2,1 C 7,8 C 1,7 C 95 % 1014,3 hPa 0,0 l/m 2 min 0 min 214 W/m 3,2 km/h (1 Bft) 97,87 %
21.11.2018 10:32 2,2 C 7,8 C 1,7 C 95 % 1014,4 hPa 0,0 l/m 2 min 0 min 195 W/m 6,4 km/h (2 Bft) 97,87 %
21.11.2018 10:34 2,3 C 7,2 C 1,7 C 95 % 1014,4 hPa 0,0 l/m 2 min 0 min 144 W/m 6,4 km/h (2 Bft) 95,74 %
21.11.2018 10:36 2,4 C 6,7 C 1,7 C 95 % 1014,4 hPa 0,0 l/m 2 min 0 min 153 W/m 6,4 km/h (2 Bft) 97,83 %
21.11.2018 10:38 2,6 C 7,8 C 1,7 C 95 % 1014,4 hPa 0,0 l/m 2 min 0 min 156 W/m 6,4 km/h (2 Bft) 97,87 %
21.11.2018 10:40 2,6 C 8,3 C 1,7 C 95 % 1014,3 hPa 0,0 l/m 2 min 0 min 155 W/m 6,4 km/h (2 Bft) 97,87 %
21.11.2018 10:42 2,7 C 8,3 C 1,7 C 95 % 1014,3 hPa 0,0 l/m 2 min 0 min 142 W/m 9,7 km/h (2 Bft) 95,74 %
21.11.2018 10:44 2,8 C 8,9 C 1,7 C 95 % 1014,4 hPa 0,0 l/m 2 min 0 min 194 W/m 9,7 km/h (2 Bft) 95,74 %
21.11.2018 10:46 2,9 C 9,4 C 1,7 C 95 % 1014,4 hPa 0,0 l/m 2 min 0 min 254 W/m 6,4 km/h (2 Bft) 91,49 %
21.11.2018 10:48 3,1 C 9,4 C 2,2 C 95 % 1014,4 hPa 0,0 l/m 2 min 0 min 240 W/m 6,4 km/h (2 Bft) 95,65 %
21.11.2018 10:50 3,2 C 8,9 C 2,2 C 94 % 1014,5 hPa 0,0 l/m 2 min 0 min 193 W/m 9,7 km/h (2 Bft) 91,49 %
21.11.2018 10:52 3,2 C 8,3 C 2,2 C 94 % 1014,5 hPa 0,0 l/m 2 min 0 min 226 W/m 3,2 km/h (1 Bft) 97,87 %
21.11.2018 10:54 3,3 C 8,3 C 2,2 C 94 % 1014,5 hPa 0,0 l/m 2 min 0 min 175 W/m 9,7 km/h (2 Bft) 97,87 %
21.11.2018 10:56 3,4 C 8,3 C 2,2 C 94 % 1014,5 hPa 0,0 l/m 2 min 0 min 230 W/m 6,4 km/h (2 Bft) 97,87 %
21.11.2018 10:58 3,6 C 8,3 C 2,2 C 94 % 1014,5 hPa 0,0 l/m 2 min 0 min 209 W/m 6,4 km/h (2 Bft) 97,87 %
21.11.2018 11:00 3,7 C 9,4 C 2,2 C 94 % 1014,6 hPa 0,0 l/m 2 min 0 min 229 W/m 9,7 km/h (2 Bft) 93,48 %
21.11.2018 11:02 3,8 C 9,4 C 2,2 C 94 % 1014,6 hPa 0,0 l/m 2 min 0 min 180 W/m 6,4 km/h (2 Bft) 97,87 %
21.11.2018 11:04 3,9 C 9,4 C 2,2 C 93 % 1014,6 hPa 0,0 l/m 2 min 0 min 251 W/m 9,7 km/h (2 Bft) 97,87 %
21.11.2018 11:06 4,0 C 10,0 C 2,8 C 93 % 1014,7 hPa 0,0 l/m 2 min 0 min 236 W/m 6,4 km/h (2 Bft) 97,87 %
21.11.2018 11:08 4,1 C 11,1 C 2,8 C 93 % 1014,7 hPa 0,0 l/m 2 min 0 min 243 W/m 6,4 km/h (2 Bft) 93,62 %
21.11.2018 11:10 4,2 C 11,1 C 2,8 C 92 % 1014,7 hPa 0,0 l/m 2 min 0 min 268 W/m 6,4 km/h (2 Bft) 97,87 %
21.11.2018 11:12 4,4 C 10,6 C 2,8 C 92 % 1014,6 hPa 0,0 l/m 2 min 0 min 285 W/m 6,4 km/h (2 Bft) 97,83 %
21.11.2018 11:14 4,5 C 10,6 C 2,8 C 91 % 1014,6 hPa 0,0 l/m 2 min 0 min 287 W/m 6,4 km/h (2 Bft) 95,74 %
21.11.2018 11:16 4,6 C 11,1 C 2,8 C 90 % 1014,6 hPa 0,0 l/m 2 min 0 min 290 W/m 9,7 km/h (2 Bft) 95,74 %
21.11.2018 11:18 4,8 C 11,1 C 2,8 C 90 % 1014,6 hPa 0,0 l/m 2 min 0 min 293 W/m 6,4 km/h (2 Bft) 100,00 %
21.11.2018 11:20 4,9 C 11,7 C 2,8 C 89 % 1014,6 hPa 0,0 l/m 2 min 0 min 295 W/m 9,7 km/h (2 Bft) 100,00 %
21.11.2018 11:22 4,9 C 11,1 C 2,8 C 88 % 1014,6 hPa 0,0 l/m 2 min 0 min 297 W/m 9,7 km/h (2 Bft) 100,00 %
21.11.2018 11:24 5,1 C 12,2 C 2,8 C 88 % 1014,5 hPa 0,0 l/m 2 min 0 min 300 W/m 6,4 km/h (2 Bft) 100,00 %
21.11.2018 11:26 5,2 C 11,7 C 3,3 C 87 % 1014,5 hPa 0,0 l/m 2 min 0 min 280 W/m 6,4 km/h (2 Bft) 97,87 %
21.11.2018 11:28 5,3 C 10,0 C 2,8 C 86 % 1014,6 hPa 0,0 l/m 2 min 0 min 220 W/m 6,4 km/h (2 Bft) 100,00 %
21.11.2018 11:30 5,3 C 10,0 C 2,8 C 85 % 1014,6 hPa 0,0 l/m 2 min 0 min 267 W/m 12,9 km/h (3 Bft) 100,00 %
21.11.2018 11:32 5,4 C 10,0 C 3,3 C 85 % 1014,6 hPa 0,0 l/m 2 min 0 min 296 W/m 9,7 km/h (2 Bft) 100,00 %
21.11.2018 11:34 5,4 C 10,6 C 3,3 C 84 % 1014,6 hPa 0,0 l/m 2 min 0 min 288 W/m 9,7 km/h (2 Bft) 100,00 %
21.11.2018 11:36 5,5 C 10,0 C 3,3 C 84 % 1014,6 hPa 0,0 l/m 2 min 0 min 223 W/m 9,7 km/h (2 Bft) 97,83 %
21.11.2018 11:38 5,6 C 10,0 C 3,3 C 83 % 1014,6 hPa 0,0 l/m 2 min 0 min 287 W/m 9,7 km/h (2 Bft) 100,00 %
21.11.2018 11:40 5,6 C 10,0 C 3,3 C 82 % 1014,6 hPa 0,0 l/m 2 min 0 min 309 W/m 12,9 km/h (3 Bft) 100,00 %
21.11.2018 11:42 5,6 C 9,4 C 3,3 C 82 % 1014,5 hPa 0,0 l/m 2 min 0 min 299 W/m 6,4 km/h (2 Bft) 97,87 %
21.11.2018 11:44 5,6 C 8,9 C 3,3 C 81 % 1014,5 hPa 0,0 l/m 2 min 0 min 224 W/m 9,7 km/h (2 Bft) 100,00 %
21.11.2018 11:46 5,6 C 9,4 C 3,3 C 81 % 1014,5 hPa 0,0 l/m 2 min 0 min 185 W/m 9,7 km/h (2 Bft) 97,87 %
21.11.2018 11:48 5,6 C 8,3 C 3,3 C 81 % 1014,5 hPa 0,0 l/m 2 min 0 min 183 W/m 6,4 km/h (2 Bft) 100,00 %
21.11.2018 11:50 5,6 C 8,3 C 3,3 C 81 % 1014,5 hPa 0,0 l/m 2 min 0 min 211 W/m 9,7 km/h (2 Bft) 95,74 %
21.11.2018 11:52 5,6 C 8,3 C 3,3 C 81 % 1014,5 hPa 0,0 l/m 2 min 0 min 193 W/m 12,9 km/h (3 Bft) 100,00 %
21.11.2018 11:54 5,6 C 8,3 C 3,3 C 81 % 1014,5 hPa 0,0 l/m 2 min 0 min 194 W/m 6,4 km/h (2 Bft) 100,00 %
21.11.2018 11:56 5,6 C 8,3 C 3,9 C 81 % 1014,6 hPa 0,0 l/m 2 min 0 min 202 W/m 6,4 km/h (2 Bft) 97,87 %
21.11.2018 11:58 5,6 C 7,8 C 3,9 C 81 % 1014,6 hPa 0,0 l/m 2 min 0 min 192 W/m 12,9 km/h (3 Bft) 100,00 %
21.11.2018 12:00 5,6 C 7,2 C 3,9 C 81 % 1014,5 hPa 0,0 l/m 2 min 0 min 166 W/m 6,4 km/h (2 Bft) 100,00 %
21.11.2018 12:02 5,6 C 6,1 C 3,9 C 80 % 1014,5 hPa 0,0 l/m 0 min 0 min 134 W/m 9,7 km/h (2 Bft) 100,00 %
21.11.2018 12:04 5,5 C 6,1 C 3,9 C 80 % 1014,6 hPa 0,0 l/m 0 min 0 min 148 W/m 9,7 km/h (2 Bft) 100,00 %
21.11.2018 12:08 5,4 C 6,1 C 3,9 C 80 % 1014,6 hPa 0,0 l/m 0 min 0 min 158 W/m 12,9 km/h (3 Bft) 100,00 %
21.11.2018 12:10 5,4 C 6,1 C 3,9 C 80 % 1014,7 hPa 0,0 l/m 0 min 0 min 142 W/m 9,7 km/h (2 Bft) 100,00 %
21.11.2018 12:12 5,4 C 5,6 C 3,9 C 80 % 1014,7 hPa 0,0 l/m 0 min 0 min 139 W/m 6,4 km/h (2 Bft) 100,00 %
21.11.2018 12:14 5,3 C 5,6 C 3,9 C 80 % 1014,8 hPa 0,0 l/m 0 min 0 min 134 W/m 9,7 km/h (2 Bft) 97,87 %
21.11.2018 12:16 5,3 C 5,6 C 3,9 C 80 % 1014,8 hPa 0,0 l/m 0 min 0 min 133 W/m 9,7 km/h (2 Bft) 100,00 %
21.11.2018 12:18 5,2 C 5,6 C 3,9 C 80 % 1014,8 hPa 0,0 l/m 0 min 0 min 135 W/m 16,1 km/h (3 Bft) 100,00 %
21.11.2018 12:20 5,2 C 5,0 C 3,9 C 79 % 1014,8 hPa 0,0 l/m 0 min 0 min 143 W/m 9,7 km/h (2 Bft) 97,87 %
21.11.2018 12:22 5,1 C 5,0 C 3,9 C 79 % 1014,8 hPa 0,0 l/m 0 min 0 min 150 W/m 29,0 km/h (5 Bft) 97,83 %
21.11.2018 12:24 5,1 C 5,0 C 3,9 C 79 % 1014,8 hPa 0,0 l/m 0 min 0 min 157 W/m 16,1 km/h (3 Bft) 97,87 %
21.11.2018 12:26 5,0 C 5,0 C 3,9 C 79 % 1014,8 hPa 0,0 l/m 2 min 0 min 167 W/m 16,1 km/h (3 Bft) 97,87 %
21.11.2018 12:28 5,0 C 5,6 C 3,9 C 79 % 1014,9 hPa 0,0 l/m 2 min 0 min 172 W/m 12,9 km/h (3 Bft) 97,87 %
21.11.2018 12:30 5,0 C 6,7 C 3,9 C 79 % 1014,8 hPa 0,0 l/m 2 min 0 min 234 W/m 9,7 km/h (2 Bft) 97,87 %
21.11.2018 12:32 5,0 C 7,2 C 3,9 C 80 % 1014,8 hPa 0,0 l/m 2 min 0 min 279 W/m 16,1 km/h (3 Bft) 97,87 %
21.11.2018 12:34 5,0 C 7,2 C 3,9 C 80 % 1014,8 hPa 0,0 l/m 2 min 0 min 247 W/m 9,7 km/h (2 Bft) 97,83 %
21.11.2018 12:36 5,1 C 6,7 C 3,9 C 80 % 1014,8 hPa 0,0 l/m 2 min 0 min 180 W/m 12,9 km/h (3 Bft) 97,87 %
21.11.2018 12:38 5,1 C 6,1 C 3,9 C 80 % 1014,9 hPa 0,0 l/m 0 min 0 min 129 W/m 9,7 km/h (2 Bft) 95,74 %
21.11.2018 12:40 5,1 C 5,6 C 3,9 C 79 % 1014,9 hPa 0,0 l/m 0 min 0 min 123 W/m 12,9 km/h (3 Bft) 97,87 %
21.11.2018 12:42 5,0 C 5,6 C 3,9 C 79 % 1014,9 hPa 0,0 l/m 0 min 0 min 144 W/m 6,4 km/h (2 Bft) 95,74 %
21.11.2018 12:44 5,0 C 6,1 C 3,9 C 79 % 1014,9 hPa 0,0 l/m 2 min 0 min 181 W/m 9,7 km/h (2 Bft) 93,62 %
21.11.2018 12:46 5,0 C 5,6 C 3,9 C 79 % 1014,9 hPa 0,0 l/m 0 min 0 min 152 W/m 12,9 km/h (3 Bft) 97,83 %
21.11.2018 12:48 5,0 C 5,6 C 3,9 C 79 % 1014,9 hPa 0,0 l/m 0 min 0 min 135 W/m 9,7 km/h (2 Bft) 97,87 %
21.11.2018 12:50 5,0 C 5,6 C 3,9 C 79 % 1014,9 hPa 0,0 l/m 0 min 0 min 142 W/m 9,7 km/h (2 Bft) 97,87 %
21.11.2018 12:52 4,9 C 5,6 C 3,9 C 79 % 1014,9 hPa 0,0 l/m 0 min 0 min 152 W/m 9,7 km/h (2 Bft) 95,74 %
21.11.2018 12:54 5,0 C 7,2 C 4,4 C 79 % 1015,0 hPa 0,0 l/m 2 min 0 min 233 W/m 3,2 km/h (1 Bft) 95,74 %
21.11.2018 12:56 5,0 C 8,3 C 4,4 C 80 % 1014,9 hPa 0,0 l/m 2 min 0 min 316 W/m 6,4 km/h (2 Bft) 95,74 %
21.11.2018 12:58 5,1 C 9,4 C 5,0 C 80 % 1014,9 hPa 0,0 l/m 2 min 0 min 378 W/m 9,7 km/h (2 Bft) 97,83 %
21.11.2018 13:00 5,2 C 10,6 C 5,0 C 80 % 1015,0 hPa 0,0 l/m 2 min 0 min 420 W/m 9,7 km/h (2 Bft) 97,87 %
21.11.2018 13:02 5,3 C 10,6 C 5,6 C 80 % 1015,0 hPa 0,0 l/m 2 min 0 min 323 W/m 12,9 km/h (3 Bft) 95,74 %
21.11.2018 13:04 5,4 C 11,1 C 5,6 C 80 % 1015,0 hPa 0,0 l/m 2 min 0 min 322 W/m 9,7 km/h (2 Bft) 97,87 %
21.11.2018 13:06 5,5 C 10,6 C 5,6 C 80 % 1014,9 hPa 0,0 l/m 2 min 0 min 370 W/m 12,9 km/h (3 Bft) 93,62 %
21.11.2018 13:08 5,6 C 10,0 C 5,6 C 79 % 1014,9 hPa 0,0 l/m 2 min 0 min 288 W/m 12,9 km/h (3 Bft) 91,30 %
21.11.2018 13:10 5,7 C 8,3 C 5,0 C 79 % 1015,0 hPa 0,0 l/m 2 min 0 min 239 W/m 16,1 km/h (3 Bft) 97,87 %
21.11.2018 13:12 5,8 C 7,8 C 5,0 C 78 % 1015,0 hPa 0,0 l/m 2 min 0 min 249 W/m 16,1 km/h (3 Bft) 93,62 %
21.11.2018 13:14 5,8 C 7,8 C 5,0 C 77 % 1015,0 hPa 0,0 l/m 2 min 0 min 233 W/m 12,9 km/h (3 Bft) 97,87 %
21.11.2018 13:16 5,8 C 7,8 C 5,0 C 77 % 1015,0 hPa 0,0 l/m 2 min 0 min 220 W/m 9,7 km/h (2 Bft) 95,74 %
21.11.2018 13:18 5,9 C 7,8 C 5,0 C 77 % 1015,0 hPa 0,0 l/m 2 min 0 min 206 W/m 12,9 km/h (3 Bft) 93,62 %
21.11.2018 13:20 5,9 C 7,2 C 4,4 C 77 % 1015,1 hPa 0,0 l/m 2 min 0 min 161 W/m 6,4 km/h (2 Bft) 97,83 %
21.11.2018 13:22 5,9 C 7,2 C 4,4 C 77 % 1015,1 hPa 0,0 l/m 2 min 0 min 215 W/m 12,9 km/h (3 Bft) 97,87 %
21.11.2018 13:24 5,9 C 7,8 C 4,4 C 76 % 1015,1 hPa 0,0 l/m 2 min 0 min 272 W/m 16,1 km/h (3 Bft) 97,87 %
21.11.2018 13:26 5,9 C 7,8 C 4,4 C 76 % 1015,0 hPa 0,0 l/m 2 min 0 min 237 W/m 12,9 km/h (3 Bft) 91,49 %
21.11.2018 13:28 5,9 C 7,2 C 4,4 C 76 % 1015,0 hPa 0,0 l/m 2 min 0 min 195 W/m 16,1 km/h (3 Bft) 95,74 %
21.11.2018 13:30 5,9 C 7,2 C 4,4 C 76 % 1015,0 hPa 0,0 l/m 2 min 0 min 198 W/m 19,3 km/h (3 Bft) 97,87 %
21.11.2018 13:32 5,9 C 7,8 C 4,4 C 76 % 1014,9 hPa 0,0 l/m 2 min 0 min 279 W/m 19,3 km/h (3 Bft) 95,65 %
21.11.2018 13:34 5,8 C 8,3 C 4,4 C 76 % 1014,9 hPa 0,0 l/m 2 min 0 min 282 W/m 9,7 km/h (2 Bft) 95,74 %
21.11.2018 13:36 5,9 C 9,4 C 4,4 C 76 % 1014,8 hPa 0,0 l/m 2 min 0 min 286 W/m 9,7 km/h (2 Bft) 94,34 %
21.11.2018 13:38 5,9 C 9,4 C 5,0 C 76 % 1014,8 hPa 0,0 l/m 2 min 0 min 250 W/m 6,4 km/h (2 Bft) 90,24 %
21.11.2018 13:40 5,9 C 8,3 C 4,4 C 76 % 1014,8 hPa 0,0 l/m 2 min 0 min 205 W/m 12,9 km/h (3 Bft) 95,74 %
21.11.2018 13:42 5,9 C 8,3 C 4,4 C 76 % 1014,8 hPa 0,0 l/m 2 min 0 min 212 W/m 9,7 km/h (2 Bft) 95,74 %
21.11.2018 13:44 5,9 C 8,3 C 4,4 C 76 % 1014,8 hPa 0,0 l/m 2 min 0 min 244 W/m 9,7 km/h (2 Bft) 93,48 %
21.11.2018 13:46 5,9 C 7,8 C 4,4 C 76 % 1014,8 hPa 0,0 l/m 2 min 0 min 194 W/m 22,5 km/h (4 Bft) 95,74 %
21.11.2018 13:48 5,9 C 8,3 C 4,4 C 76 % 1014,8 hPa 0,0 l/m 2 min 0 min 222 W/m 9,7 km/h (2 Bft) 95,74 %
21.11.2018 13:50 5,9 C 8,3 C 4,4 C 76 % 1014,9 hPa 0,0 l/m 2 min 0 min 218 W/m 9,7 km/h (2 Bft) 97,87 %
21.11.2018 13:52 5,9 C 7,8 C 4,4 C 76 % 1014,9 hPa 0,0 l/m 2 min 0 min 184 W/m 12,9 km/h (3 Bft) 93,62 %
21.11.2018 13:54 5,9 C 7,8 C 4,4 C 76 % 1014,9 hPa 0,0 l/m 2 min 0 min 165 W/m 9,7 km/h (2 Bft) 95,74 %
21.11.2018 13:56 5,9 C 6,7 C 4,4 C 76 % 1014,8 hPa 0,0 l/m 0 min 0 min 126 W/m 16,1 km/h (3 Bft) 97,83 %
21.11.2018 13:58 5,9 C 6,1 C 4,4 C 76 % 1014,9 hPa 0,0 l/m 0 min 0 min 119 W/m 12,9 km/h (3 Bft) 95,74 %
21.11.2018 14:00 5,9 C 6,1 C 4,4 C 76 % 1014,8 hPa 0,0 l/m 0 min 0 min 126 W/m 9,7 km/h (2 Bft) 97,87 %
21.11.2018 14:02 5,8 C 6,1 C 3,9 C 76 % 1014,8 hPa 0,0 l/m 0 min 0 min 120 W/m 9,7 km/h (2 Bft) 97,87 %
21.11.2018 14:04 5,8 C 6,1 C 3,9 C 76 % 1014,8 hPa 0,0 l/m 0 min 0 min 112 W/m 6,4 km/h (2 Bft) 97,87 %
21.11.2018 14:06 5,8 C 6,1 C 3,9 C 76 % 1014,8 hPa 0,0 l/m 0 min 0 min 111 W/m 12,9 km/h (3 Bft) 95,65 %
21.11.2018 14:08 5,7 C 5,6 C 3,9 C 76 % 1014,8 hPa 0,0 l/m 0 min 0 min 92 W/m 12,9 km/h (3 Bft) 95,74 %
21.11.2018 14:10 5,7 C 5,6 C 3,9 C 76 % 1014,8 hPa 0,0 l/m 0 min 0 min 83 W/m 9,7 km/h (2 Bft) 95,74 %
21.11.2018 14:12 5,7 C 5,6 C 3,9 C 76 % 1014,8 hPa 0,0 l/m 0 min 0 min 66 W/m 6,4 km/h (2 Bft) 97,87 %
21.11.2018 14:14 5,6 C 5,0 C 3,9 C 76 % 1014,9 hPa 0,0 l/m 0 min 0 min 58 W/m 9,7 km/h (2 Bft) 97,87 %
21.11.2018 14:16 5,6 C 5,0 C 3,9 C 77 % 1014,8 hPa 0,0 l/m 0 min 0 min 55 W/m 16,1 km/h (3 Bft) 97,87 %
21.11.2018 14:18 5,6 C 5,0 C 3,9 C 77 % 1014,8 hPa 0,0 l/m 0 min 0 min 54 W/m 6,4 km/h (2 Bft) 97,87 %
21.11.2018 14:20 5,6 C 5,0 C 3,9 C 77 % 1014,8 hPa 0,0 l/m 0 min 0 min 53 W/m 6,4 km/h (2 Bft) 97,83 %
21.11.2018 14:22 5,5 C 5,0 C 3,9 C 77 % 1014,8 hPa 0,0 l/m 0 min 0 min 52 W/m 3,2 km/h (1 Bft) 97,87 %
21.11.2018 14:24 5,4 C 5,0 C 3,9 C 77 % 1014,8 hPa 0,0 l/m 0 min 0 min 51 W/m 6,4 km/h (2 Bft) 97,87 %
21.11.2018 14:26 5,4 C 5,0 C 3,9 C 78 % 1014,9 hPa 0,0 l/m 0 min 0 min 54 W/m 6,4 km/h (2 Bft) 100,00 %
21.11.2018 14:28 5,4 C 4,4 C 3,9 C 78 % 1014,9 hPa 0,0 l/m 0 min 0 min 57 W/m 6,4 km/h (2 Bft) 100,00 %
21.11.2018 14:30 5,4 C 4,4 C 3,9 C 78 % 1014,9 hPa 0,0 l/m 0 min 0 min 62 W/m 6,4 km/h (2 Bft) 100,00 %
21.11.2018 14:32 5,3 C 5,0 C 3,9 C 78 % 1014,8 hPa 0,0 l/m 0 min 0 min 66 W/m 3,2 km/h (1 Bft) 97,87 %
21.11.2018 14:34 5,3 C 5,0 C 3,9 C 78 % 1014,8 hPa 0,0 l/m 0 min 0 min 70 W/m 3,2 km/h (1 Bft) 97,87 %
21.11.2018 14:36 5,3 C 5,0 C 3,9 C 78 % 1014,8 hPa 0,0 l/m 0 min 0 min 72 W/m 3,2 km/h (1 Bft) 97,87 %
21.11.2018 14:38 5,3 C 5,0 C 3,9 C 78 % 1014,8 hPa 0,0 l/m 0 min 0 min 72 W/m 3,2 km/h (1 Bft) 100,00 %
21.11.2018 14:40 5,3 C 5,0 C 3,9 C 78 % 1014,8 hPa 0,0 l/m 0 min 0 min 70 W/m 3,2 km/h (1 Bft) 100,00 %
21.11.2018 14:42 5,2 C 5,0 C 3,9 C 79 % 1014,9 hPa 0,0 l/m 0 min 0 min 70 W/m 3,2 km/h (1 Bft) 100,00 %
21.11.2018 14:44 5,2 C 4,4 C 3,9 C 79 % 1014,9 hPa 0,0 l/m 0 min 0 min 69 W/m 3,2 km/h (1 Bft) 100,00 %
21.11.2018 14:46 5,2 C 4,4 C 3,9 C 79 % 1014,9 hPa 0,0 l/m 0 min 0 min 69 W/m 6,4 km/h (2 Bft) 100,00 %
21.11.2018 14:48 5,2 C 4,4 C 3,9 C 79 % 1014,9 hPa 0,0 l/m 0 min 0 min 69 W/m 6,4 km/h (2 Bft) 100,00 %
21.11.2018 14:50 5,2 C 5,0 C 3,9 C 79 % 1014,9 hPa 0,0 l/m 0 min 0 min 70 W/m 6,4 km/h (2 Bft) 100,00 %
21.11.2018 14:52 5,1 C 5,0 C 3,9 C 79 % 1015,0 hPa 0,0 l/m 0 min 0 min 71 W/m 9,7 km/h (2 Bft) 100,00 %
21.11.2018 14:54 5,1 C 5,0 C 3,9 C 79 % 1014,9 hPa 0,0 l/m 0 min 0 min 72 W/m 6,4 km/h (2 Bft) 100,00 %
21.11.2018 14:56 5,1 C 5,0 C 3,9 C 80 % 1015,0 hPa 0,0 l/m 0 min 0 min 74 W/m 6,4 km/h (2 Bft) 100,00 %
21.11.2018 14:58 5,1 C 5,0 C 3,9 C 80 % 1015,0 hPa 0,0 l/m 0 min 0 min 72 W/m 6,4 km/h (2 Bft) 100,00 %
21.11.2018 15:00 5,1 C 5,0 C 3,9 C 80 % 1015,0 hPa 0,0 l/m 0 min 0 min 70 W/m 6,4 km/h (2 Bft) 100,00 %
21.11.2018 15:02 5,1 C 5,0 C 3,9 C 80 % 1014,9 hPa 0,0 l/m 0 min 0 min 69 W/m 6,4 km/h (2 Bft) 97,87 %
21.11.2018 15:04 5,1 C 5,0 C 3,9 C 80 % 1014,9 hPa 0,0 l/m 0 min 0 min 67 W/m 6,4 km/h (2 Bft) 100,00 %
21.11.2018 15:06 5,1 C 4,4 C 3,9 C 80 % 1014,9 hPa 0,0 l/m 0 min 0 min 62 W/m 6,4 km/h (2 Bft) 100,00 %
21.11.2018 15:08 5,0 C 4,4 C 3,9 C 80 % 1014,9 hPa 0,0 l/m 0 min 0 min 58 W/m 6,4 km/h (2 Bft) 100,00 %
21.11.2018 15:10 5,0 C 4,4 C 3,9 C 80 % 1014,8 hPa 0,0 l/m 0 min 0 min 54 W/m 6,4 km/h (2 Bft) 100,00 %
21.11.2018 15:12 5,0 C 4,4 C 3,9 C 80 % 1014,9 hPa 0,0 l/m 0 min 0 min 50 W/m 6,4 km/h (2 Bft) 97,87 %
21.11.2018 15:14 5,0 C 4,4 C 3,9 C 80 % 1014,9 hPa 0,0 l/m 0 min 0 min 46 W/m 9,7 km/h (2 Bft) 100,00 %
21.11.2018 15:16 4,9 C 4,4 C 3,9 C 80 % 1015,0 hPa 0,0 l/m 0 min 0 min 44 W/m 6,4 km/h (2 Bft) 100,00 %
21.11.2018 15:18 4,9 C 4,4 C 3,9 C 80 % 1015,0 hPa 0,0 l/m 0 min 0 min 42 W/m 6,4 km/h (2 Bft) 100,00 %
21.11.2018 15:20 4,9 C 4,4 C 3,9 C 80 % 1015,0 hPa 0,0 l/m 0 min 0 min 40 W/m 6,4 km/h (2 Bft) 97,87 %
21.11.2018 15:22 4,9 C 4,4 C 3,9 C 80 % 1015,0 hPa 0,0 l/m 0 min 0 min 41 W/m 9,7 km/h (2 Bft) 100,00 %
21.11.2018 15:24 4,9 C 4,4 C 3,9 C 80 % 1015,0 hPa 0,0 l/m 0 min 0 min 42 W/m 6,4 km/h (2 Bft) 97,87 %
21.11.2018 15:26 4,9 C 4,4 C 3,9 C 80 % 1014,9 hPa 0,0 l/m 0 min 0 min 44 W/m 6,4 km/h (2 Bft) 97,87 %
21.11.2018 15:28 4,8 C 4,4 C 3,9 C 80 % 1015,0 hPa 0,0 l/m 0 min 0 min 46 W/m 6,4 km/h (2 Bft) 97,83 %
21.11.2018 15:30 4,8 C 4,4 C 3,9 C 80 % 1014,9 hPa 0,0 l/m 0 min 0 min 46 W/m 9,7 km/h (2 Bft) 97,87 %
21.11.2018 15:32 4,8 C 4,4 C 3,9 C 80 % 1015,0 hPa 0,0 l/m 0 min 0 min 44 W/m 6,4 km/h (2 Bft) 97,87 %
21.11.2018 15:34 4,8 C 4,4 C 3,9 C 80 % 1015,0 hPa 0,0 l/m 0 min 0 min 42 W/m 6,4 km/h (2 Bft) 97,87 %
21.11.2018 15:36 4,8 C 3,9 C 3,3 C 80 % 1015,1 hPa 0,0 l/m 0 min 0 min 39 W/m 9,7 km/h (2 Bft) 97,87 %
21.11.2018 15:38 4,7 C 3,9 C 3,3 C 80 % 1015,1 hPa 0,0 l/m 0 min 0 min 36 W/m 6,4 km/h (2 Bft) 97,87 %
21.11.2018 15:40 4,7 C 3,9 C 3,3 C 80 % 1015,1 hPa 0,0 l/m 0 min 0 min 33 W/m 6,4 km/h (2 Bft) 97,83 %
21.11.2018 15:42 4,7 C 3,9 C 3,3 C 80 % 1015,2 hPa 0,0 l/m 0 min 0 min 33 W/m 6,4 km/h (2 Bft) 97,87 %
21.11.2018 15:44 4,7 C 3,9 C 3,3 C 80 % 1015,2 hPa 0,0 l/m 0 min 0 min 33 W/m 6,4 km/h (2 Bft) 97,87 %
21.11.2018 15:46 4,7 C 3,9 C 3,3 C 80 % 1015,2 hPa 0,0 l/m 0 min 0 min 33 W/m 9,7 km/h (2 Bft) 97,87 %
21.11.2018 15:48 4,7 C 3,9 C 3,3 C 81 % 1015,2 hPa 0,0 l/m 0 min 0 min 31 W/m 6,4 km/h (2 Bft) 95,74 %
21.11.2018 15:50 4,6 C 3,9 C 3,3 C 81 % 1015,2 hPa 0,0 l/m 0 min 0 min 27 W/m 6,4 km/h (2 Bft) 97,87 %
21.11.2018 15:52 4,6 C 3,9 C 3,3 C 81 % 1015,2 hPa 0,0 l/m 0 min 0 min 25 W/m 6,4 km/h (2 Bft) 97,83 %
21.11.2018 15:54 4,6 C 3,9 C 3,3 C 81 % 1015,2 hPa 0,0 l/m 0 min 0 min 23 W/m 6,4 km/h (2 Bft) 97,87 %
21.11.2018 15:56 4,6 C 3,9 C 3,3 C 81 % 1015,2 hPa 0,0 l/m 0 min 0 min 22 W/m 9,7 km/h (2 Bft) 93,62 %
21.11.2018 15:58 4,6 C 3,9 C 3,3 C 81 % 1015,2 hPa 0,0 l/m 0 min 0 min 21 W/m 3,2 km/h (1 Bft) 97,87 %
21.11.2018 16:00 4,6 C 3,9 C 3,3 C 81 % 1015,2 hPa 0,0 l/m 0 min 0 min 21 W/m 9,7 km/h (2 Bft) 95,74 %
21.11.2018 16:02 4,5 C 3,9 C 3,3 C 81 % 1015,2 hPa 0,0 l/m 0 min 0 min 21 W/m 9,7 km/h (2 Bft) 95,74 %
21.11.2018 16:04 4,5 C 3,9 C 3,3 C 81 % 1015,2 hPa 0,0 l/m 0 min 0 min 19 W/m 6,4 km/h (2 Bft) 95,65 %
21.11.2018 16:06 4,4 C 3,9 C 3,3 C 81 % 1015,3 hPa 0,0 l/m 0 min 0 min 18 W/m 6,4 km/h (2 Bft) 95,74 %
21.11.2018 16:08 4,4 C 3,9 C 3,3 C 81 % 1015,3 hPa 0,0 l/m 0 min 0 min 16 W/m 9,7 km/h (2 Bft) 95,74 %
21.11.2018 16:10 4,4 C 3,9 C 3,3 C 81 % 1015,3 hPa 0,0 l/m 0 min 0 min 14 W/m 6,4 km/h (2 Bft) 93,62 %
21.11.2018 16:12 4,4 C 3,9 C 3,3 C 81 % 1015,4 hPa 0,0 l/m 0 min 0 min 14 W/m 6,4 km/h (2 Bft) 93,62 %
21.11.2018 16:14 4,4 C 3,9 C 3,3 C 81 % 1015,4 hPa 0,0 l/m 0 min 0 min 12 W/m 12,9 km/h (3 Bft) 95,74 %
21.11.2018 16:16 4,4 C 3,9 C 3,3 C 82 % 1015,5 hPa 0,0 l/m 0 min 0 min 12 W/m 9,7 km/h (2 Bft) 93,48 %
21.11.2018 16:18 4,3 C 3,3 C 3,3 C 82 % 1015,4 hPa 0,0 l/m 0 min 0 min 12 W/m 6,4 km/h (2 Bft) 93,62 %
21.11.2018 16:20 4,3 C 3,3 C 2,8 C 82 % 1015,4 hPa 0,0 l/m 0 min 0 min 11 W/m 6,4 km/h (2 Bft) 91,49 %
21.11.2018 16:22 4,3 C 3,3 C 2,8 C 82 % 1015,4 hPa 0,0 l/m 0 min 0 min 11 W/m 9,7 km/h (2 Bft) 93,62 %
21.11.2018 16:24 4,3 C 3,3 C 2,8 C 82 % 1015,4 hPa 0,0 l/m 0 min 0 min 10 W/m 12,9 km/h (3 Bft) 91,49 %
21.11.2018 16:26 4,3 C 3,3 C 2,8 C 82 % 1015,5 hPa 0,0 l/m 0 min 0 min 7 W/m 9,7 km/h (2 Bft) 93,62 %
21.11.2018 16:28 4,2 C 3,3 C 2,8 C 82 % 1015,4 hPa 0,0 l/m 0 min 0 min 7 W/m 6,4 km/h (2 Bft) 93,48 %
21.11.2018 16:30 4,2 C 3,3 C 2,8 C 82 % 1015,4 hPa 0,0 l/m 0 min 0 min 6 W/m 6,4 km/h (2 Bft) 93,62 %
21.11.2018 16:32 4,2 C 3,3 C 2,8 C 82 % 1015,3 hPa 0,0 l/m 0 min 0 min 5 W/m 6,4 km/h (2 Bft) 93,62 %
21.11.2018 16:34 4,2 C 3,3 C 2,8 C 82 % 1015,4 hPa 0,0 l/m 0 min 0 min 2 W/m 6,4 km/h (2 Bft) 93,62 %
21.11.2018 16:36 4,2 C 3,3 C 2,8 C 82 % 1015,4 hPa 0,0 l/m 0 min 0 min 0 W/m 6,4 km/h (2 Bft) 95,74 %
21.11.2018 16:38 4,1 C 3,3 C 2,8 C 82 % 1015,4 hPa 0,0 l/m 0 min 0 min 0 W/m 6,4 km/h (2 Bft) 94,34 %
21.11.2018 16:40 4,1 C 3,3 C 2,8 C 82 % 1015,4 hPa 0,0 l/m 0 min 0 min 0 W/m 9,7 km/h (2 Bft) 94,29 %
21.11.2018 16:42 4,1 C 3,3 C 2,8 C 82 % 1015,4 hPa 0,0 l/m 0 min 0 min 0 W/m 6,4 km/h (2 Bft) 93,62 %
21.11.2018 16:44 4,1 C 3,3 C 2,8 C 83 % 1015,4 hPa 0,0 l/m 0 min 0 min 0 W/m 9,7 km/h (2 Bft) 93,62 %
21.11.2018 16:46 4,0 C 3,3 C 2,8 C 82 % 1015,4 hPa 0,0 l/m 0 min 0 min 0 W/m 6,4 km/h (2 Bft) 95,74 %
21.11.2018 16:48 4,0 C 3,3 C 2,8 C 83 % 1015,4 hPa 0,0 l/m 0 min 0 min 0 W/m 9,7 km/h (2 Bft) 95,74 %
21.11.2018 16:50 4,0 C 2,8 C 2,8 C 83 % 1015,4 hPa 0,0 l/m 0 min 0 min 0 W/m 6,4 km/h (2 Bft) 93,48 %
21.11.2018 16:52 3,9 C 2,8 C 2,8 C 83 % 1015,4 hPa 0,0 l/m 0 min 0 min 0 W/m 6,4 km/h (2 Bft) 95,74 %
21.11.2018 16:54 3,9 C 2,8 C 2,8 C 83 % 1015,4 hPa 0,0 l/m 0 min 0 min 0 W/m 9,7 km/h (2 Bft) 97,87 %
21.11.2018 16:56 3,9 C 2,8 C 2,2 C 83 % 1015,5 hPa 0,0 l/m 0 min 0 min 0 W/m 6,4 km/h (2 Bft) 95,74 %
21.11.2018 16:58 3,9 C 2,8 C 2,2 C 83 % 1015,5 hPa 0,0 l/m 0 min 0 min 0 W/m 6,4 km/h (2 Bft) 97,87 %
21.11.2018 17:00 3,8 C 2,8 C 2,2 C 83 % 1015,5 hPa 0,0 l/m 0 min 0 min 0 W/m 6,4 km/h (2 Bft) 100,00 %
21.11.2018 17:02 3,8 C 2,8 C 2,2 C 83 % 1015,6 hPa 0,0 l/m 0 min 0 min 0 W/m 12,9 km/h (3 Bft) 97,87 %
21.11.2018 17:04 3,8 C 2,8 C 2,2 C 83 % 1015,5 hPa 0,0 l/m 0 min 0 min 0 W/m 9,7 km/h (2 Bft) 100,00 %
21.11.2018 17:06 3,7 C 2,8 C 2,2 C 83 % 1015,6 hPa 0,0 l/m 0 min 0 min 0 W/m 12,9 km/h (3 Bft) 98,31 %
21.11.2018 17:08 3,7 C 2,8 C 2,2 C 83 % 1015,6 hPa 0,0 l/m 0 min 0 min 0 W/m 9,7 km/h (2 Bft) 100,00 %
21.11.2018 17:10 3,7 C 2,8 C 2,2 C 83 % 1015,6 hPa 0,0 l/m 0 min 0 min 0 W/m 9,7 km/h (2 Bft) 100,00 %
21.11.2018 17:12 3,7 C 2,8 C 2,2 C 83 % 1015,6 hPa 0,0 l/m 0 min 0 min 0 W/m 6,4 km/h (2 Bft) 100,00 %
21.11.2018 17:14 3,7 C 2,8 C 2,2 C 83 % 1015,6 hPa 0,0 l/m 0 min 0 min 0 W/m 9,7 km/h (2 Bft) 97,87 %
21.11.2018 17:16 3,7 C 2,8 C 2,2 C 84 % 1015,7 hPa 0,0 l/m 0 min 0 min 0 W/m 9,7 km/h (2 Bft) 93,62 %
21.11.2018 17:18 3,6 C 2,8 C 2,2 C 84 % 1015,7 hPa 0,0 l/m 0 min 0 min 0 W/m 6,4 km/h (2 Bft) 97,87 %
21.11.2018 17:20 3,6 C 2,8 C 2,2 C 84 % 1015,7 hPa 0,0 l/m 0 min 0 min 0 W/m 6,4 km/h (2 Bft) 100,00 %
21.11.2018 17:22 3,6 C 2,8 C 2,2 C 84 % 1015,7 hPa 0,0 l/m 0 min 0 min 0 W/m 9,7 km/h (2 Bft) 100,00 %
21.11.2018 17:24 3,6 C 2,8 C 2,2 C 84 % 1015,7 hPa 0,0 l/m 0 min 0 min 0 W/m 9,7 km/h (2 Bft) 97,83 %
21.11.2018 17:26 3,6 C 2,8 C 2,2 C 84 % 1015,7 hPa 0,0 l/m 0 min 0 min 0 W/m 9,7 km/h (2 Bft) 100,00 %
21.11.2018 17:28 3,6 C 2,8 C 2,2 C 84 % 1015,8 hPa 0,0 l/m 0 min 0 min 0 W/m 6,4 km/h (2 Bft) 100,00 %
21.11.2018 17:30 3,5 C 2,8 C 2,2 C 84 % 1015,8 hPa 0,0 l/m 0 min 0 min 0 W/m 6,4 km/h (2 Bft) 97,87 %
21.11.2018 17:32 3,5 C 2,8 C 2,2 C 84 % 1015,7 hPa 0,0 l/m 0 min 0 min 0 W/m 6,4 km/h (2 Bft) 100,00 %
21.11.2018 17:34 3,4 C 2,8 C 2,2 C 84 % 1015,8 hPa 0,0 l/m 0 min 0 min 0 W/m 6,4 km/h (2 Bft) 100,00 %
21.11.2018 17:36 3,4 C 2,8 C 2,2 C 84 % 1015,8 hPa 0,0 l/m 0 min 0 min 0 W/m 6,4 km/h (2 Bft) 100,00 %
21.11.2018 17:38 3,4 C 2,2 C 2,2 C 84 % 1015,8 hPa 0,0 l/m 0 min 0 min 0 W/m 6,4 km/h (2 Bft) 100,00 %
21.11.2018 17:40 3,4 C 2,2 C 2,2 C 84 % 1015,7 hPa 0,0 l/m 0 min 0 min 0 W/m 3,2 km/h (1 Bft) 100,00 %
21.11.2018 17:42 3,4 C 2,2 C 2,2 C 84 % 1015,8 hPa 0,0 l/m 0 min 0 min 0 W/m 3,2 km/h (1 Bft) 97,87 %
21.11.2018 17:44 3,4 C 2,2 C 2,2 C 84 % 1015,8 hPa 0,0 l/m 0 min 0 min 0 W/m 3,2 km/h (1 Bft) 100,00 %
21.11.2018 17:46 3,3 C 2,2 C 2,2 C 84 % 1015,8 hPa 0,0 l/m 0 min 0 min 0 W/m 6,4 km/h (2 Bft) 100,00 %
21.11.2018 17:48 3,3 C 2,2 C 1,7 C 84 % 1015,9 hPa 0,0 l/m 0 min 0 min 0 W/m 6,4 km/h (2 Bft) 100,00 %
21.11.2018 17:50 3,2 C 1,7 C 1,7 C 84 % 1015,9 hPa 0,0 l/m 0 min 0 min 0 W/m 3,2 km/h (1 Bft) 100,00 %
21.11.2018 17:52 3,2 C 1,7 C 1,7 C 84 % 1015,9 hPa 0,0 l/m 0 min 0 min 0 W/m 3,2 km/h (1 Bft) 100,00 %
21.11.2018 17:54 3,2 C 1,7 C 1,7 C 84 % 1015,9 hPa 0,0 l/m 0 min 0 min 0 W/m 3,2 km/h (1 Bft) 100,00 %
21.11.2018 17:56 3,2 C 1,1 C 1,7 C 84 % 1015,9 hPa 0,0 l/m 0 min 0 min 0 W/m 3,2 km/h (1 Bft) 100,00 %
21.11.2018 17:58 3,1 C 1,1 C 1,1 C 84 % 1016,0 hPa 0,0 l/m 0 min 0 min 0 W/m 3,2 km/h (1 Bft) 100,00 %
21.11.2018 18:00 3,1 C 1,1 C 1,1 C 84 % 1016,0 hPa 0,0 l/m 0 min 0 min 0 W/m 0,0 km/h (0 Bft) 100,00 %
21.11.2018 18:02 3,1 C 1,1 C 1,1 C 84 % 1016,1 hPa 0,0 l/m 0 min 0 min 0 W/m 3,2 km/h (1 Bft) 97,87 %
21.11.2018 18:04 3,0 C 1,1 C 1,1 C 84 % 1016,1 hPa 0,0 l/m 0 min 0 min 0 W/m 6,4 km/h (2 Bft) 100,00 %
21.11.2018 18:08 2,9 C 1,7 C 1,7 C 84 % 1016,1 hPa 0,0 l/m 0 min 0 min 0 W/m 3,2 km/h (1 Bft) 100,00 %
21.11.2018 18:10 2,9 C 1,7 C 1,7 C 84 % 1016,2 hPa 0,0 l/m 0 min 0 min 0 W/m 6,4 km/h (2 Bft) 100,00 %
21.11.2018 18:12 2,8 C 1,7 C 1,7 C 85 % 1016,1 hPa 0,0 l/m 0 min 0 min 0 W/m 3,2 km/h (1 Bft) 100,00 %
21.11.2018 18:14 2,8 C 1,7 C 1,7 C 85 % 1016,1 hPa 0,0 l/m 0 min 0 min 0 W/m 3,2 km/h (1 Bft) 100,00 %
21.11.2018 18:16 2,8 C 1,7 C 1,7 C 85 % 1016,1 hPa 0,0 l/m 0 min 0 min 0 W/m 3,2 km/h (1 Bft) 100,00 %
21.11.2018 18:18 2,7 C 1,7 C 1,7 C 85 % 1016,2 hPa 0,0 l/m 0 min 0 min 0 W/m 6,4 km/h (2 Bft) 100,00 %
21.11.2018 18:20 2,7 C 2,2 C 1,7 C 85 % 1016,1 hPa 0,0 l/m 0 min 0 min 0 W/m 6,4 km/h (2 Bft) 100,00 %
21.11.2018 18:22 2,7 C 2,2 C 1,7 C 86 % 1016,2 hPa 0,0 l/m 0 min 0 min 0 W/m 3,2 km/h (1 Bft) 97,83 %
21.11.2018 18:24 2,7 C 2,2 C 1,7 C 86 % 1016,2 hPa 0,0 l/m 0 min 0 min 0 W/m 6,4 km/h (2 Bft) 100,00 %
21.11.2018 18:26 2,7 C 2,2 C 1,7 C 86 % 1016,2 hPa 0,0 l/m 0 min 0 min 0 W/m 6,4 km/h (2 Bft) 100,00 %
21.11.2018 18:28 2,7 C 2,2 C 2,2 C 86 % 1016,2 hPa 0,0 l/m 0 min 0 min 0 W/m 6,4 km/h (2 Bft) 97,87 %
21.11.2018 18:30 2,7 C 2,2 C 2,2 C 86 % 1016,2 hPa 0,0 l/m 0 min 0 min 0 W/m 6,4 km/h (2 Bft) 97,87 %
21.11.2018 18:32 2,7 C 2,2 C 2,2 C 86 % 1016,2 hPa 0,0 l/m 0 min 0 min 0 W/m 12,9 km/h (3 Bft) 97,87 %
21.11.2018 18:34 2,7 C 2,2 C 2,2 C 87 % 1016,3 hPa 0,0 l/m 0 min 0 min 0 W/m 6,4 km/h (2 Bft) 100,00 %
21.11.2018 18:36 2,7 C 2,8 C 2,2 C 87 % 1016,3 hPa 0,0 l/m 0 min 0 min 0 W/m 9,7 km/h (2 Bft) 98,31 %
21.11.2018 18:38 2,7 C 2,8 C 2,2 C 87 % 1016,3 hPa 0,0 l/m 0 min 0 min 0 W/m 16,1 km/h (3 Bft) 100,00 %
21.11.2018 18:40 2,7 C 2,8 C 2,2 C 87 % 1016,3 hPa 0,0 l/m 0 min 0 min 0 W/m 6,4 km/h (2 Bft) 95,74 %
21.11.2018 18:42 2,7 C 2,8 C 2,2 C 87 % 1016,4 hPa 0,0 l/m 0 min 0 min 0 W/m 9,7 km/h (2 Bft) 95,74 %
21.11.2018 18:44 2,7 C 2,8 C 2,2 C 87 % 1016,4 hPa 0,0 l/m 0 min 0 min 0 W/m 9,7 km/h (2 Bft) 97,83 %
21.11.2018 18:46 2,8 C 2,8 C 2,2 C 87 % 1016,4 hPa 0,0 l/m 0 min 0 min 0 W/m 9,7 km/h (2 Bft) 97,87 %
21.11.2018 18:48 2,8 C 2,8 C 2,2 C 87 % 1016,4 hPa 0,0 l/m 0 min 0 min 0 W/m 12,9 km/h (3 Bft) 97,87 %
21.11.2018 18:50 2,8 C 2,8 C 2,2 C 87 % 1016,4 hPa 0,0 l/m 0 min 0 min 0 W/m 12,9 km/h (3 Bft) 97,87 %
21.11.2018 18:52 2,8 C 2,8 C 2,2 C 87 % 1016,4 hPa 0,0 l/m 0 min 0 min 0 W/m 9,7 km/h (2 Bft) 97,87 %
21.11.2018 18:54 2,8 C 2,8 C 2,2 C 87 % 1016,4 hPa 0,0 l/m 0 min 0 min 0 W/m 9,7 km/h (2 Bft) 97,87 %
21.11.2018 18:56 2,8 C 2,8 C 2,2 C 87 % 1016,5 hPa 0,0 l/m 0 min 0 min 0 W/m 12,9 km/h (3 Bft) 97,83 %
21.11.2018 18:58 2,9 C 2,8 C 2,2 C 87 % 1016,4 hPa 0,0 l/m 0 min 0 min 0 W/m 12,9 km/h (3 Bft) 97,87 %
21.11.2018 19:00 2,9 C 2,8 C 2,2 C 87 % 1016,4 hPa 0,0 l/m 0 min 0 min 0 W/m 12,9 km/h (3 Bft) 95,74 %
21.11.2018 19:02 2,9 C 2,8 C 2,2 C 87 % 1016,4 hPa 0,0 l/m 0 min 0 min 0 W/m 12,9 km/h (3 Bft) 97,87 %
21.11.2018 19:04 2,9 C 2,8 C 2,2 C 87 % 1016,4 hPa 0,0 l/m 0 min 0 min 0 W/m 9,7 km/h (2 Bft) 97,87 %
21.11.2018 19:06 2,9 C 2,8 C 2,2 C 87 % 1016,4 hPa 0,0 l/m 0 min 0 min 0 W/m 9,7 km/h (2 Bft) 94,83 %
21.11.2018 19:08 2,9 C 2,8 C 2,2 C 87 % 1016,4 hPa 0,0 l/m 0 min 0 min 0 W/m 6,4 km/h (2 Bft) 94,29 %
21.11.2018 19:10 2,9 C 2,8 C 2,2 C 87 % 1016,5 hPa 0,0 l/m 0 min 0 min 0 W/m 9,7 km/h (2 Bft) 97,87 %
21.11.2018 19:12 2,9 C 2,8 C 2,2 C 87 % 1016,5 hPa 0,0 l/m 0 min 0 min 0 W/m 9,7 km/h (2 Bft) 95,74 %
21.11.2018 19:14 3,0 C 2,8 C 2,2 C 87 % 1016,5 hPa 0,0 l/m 0 min 0 min 0 W/m 9,7 km/h (2 Bft) 93,62 %
21.11.2018 19:16 3,0 C 2,8 C 2,2 C 86 % 1016,5 hPa 0,0 l/m 0 min 0 min 0 W/m 9,7 km/h (2 Bft) 95,74 %
21.11.2018 19:18 3,0 C 2,8 C 2,2 C 86 % 1016,5 hPa 0,0 l/m 0 min 0 min 0 W/m 12,9 km/h (3 Bft) 95,74 %
21.11.2018 19:20 3,0 C 2,8 C 2,2 C 86 % 1016,5 hPa 0,0 l/m 0 min 0 min 0 W/m 9,7 km/h (2 Bft) 95,65 %
21.11.2018 19:22 3,0 C 2,8 C 2,2 C 86 % 1016,6 hPa 0,0 l/m 0 min 0 min 0 W/m 16,1 km/h (3 Bft) 97,87 %
21.11.2018 19:24 3,0 C 2,8 C 2,2 C 86 % 1016,6 hPa 0,0 l/m 0 min 0 min 0 W/m 9,7 km/h (2 Bft) 97,87 %
21.11.2018 19:26 3,0 C 2,8 C 2,2 C 86 % 1016,6 hPa 0,0 l/m 0 min 0 min 0 W/m 9,7 km/h (2 Bft) 95,74 %
21.11.2018 19:28 3,0 C 2,8 C 2,2 C 86 % 1016,6 hPa 0,0 l/m 0 min 0 min 0 W/m 9,7 km/h (2 Bft) 95,74 %
21.11.2018 19:30 3,0 C 2,8 C 2,2 C 86 % 1016,7 hPa 0,0 l/m 0 min 0 min 0 W/m 6,4 km/h (2 Bft) 95,74 %
21.11.2018 19:32 3,0 C 2,8 C 2,2 C 86 % 1016,7 hPa 0,0 l/m 0 min 0 min 0 W/m 6,4 km/h (2 Bft) 95,65 %
21.11.2018 19:34 3,0 C 2,8 C 2,2 C 86 % 1016,6 hPa 0,0 l/m 0 min 0 min 0 W/m 9,7 km/h (2 Bft) 97,87 %
21.11.2018 19:36 3,0 C 2,8 C 2,2 C 86 % 1016,7 hPa 0,0 l/m 0 min 0 min 0 W/m 9,7 km/h (2 Bft) 96,61 %
21.11.2018 19:38 3,0 C 2,8 C 2,2 C 86 % 1016,7 hPa 0,0 l/m 0 min 0 min 0 W/m 6,4 km/h (2 Bft) 94,29 %
21.11.2018 19:40 3,0 C 2,8 C 2,2 C 86 % 1016,7 hPa 0,0 l/m 0 min 0 min 0 W/m 16,1 km/h (3 Bft) 93,62 %
21.11.2018 19:42 3,0 C 2,8 C 2,2 C 86 % 1016,7 hPa 0,0 l/m 0 min 0 min 0 W/m 6,4 km/h (2 Bft) 93,48 %
21.11.2018 19:44 3,0 C 2,8 C 2,2 C 86 % 1016,7 hPa 0,0 l/m 0 min 0 min 0 W/m 19,3 km/h (3 Bft) 95,74 %
21.11.2018 19:46 3,0 C 2,8 C 2,2 C 86 % 1016,8 hPa 0,0 l/m 0 min 0 min 0 W/m 12,9 km/h (3 Bft) 93,62 %
21.11.2018 19:48 3,0 C 2,8 C 2,2 C 86 % 1016,8 hPa 0,0 l/m 0 min 0 min 0 W/m 16,1 km/h (3 Bft) 95,74 %
21.11.2018 19:50 3,0 C 2,8 C 2,2 C 86 % 1016,8 hPa 0,0 l/m 0 min 0 min 0 W/m 12,9 km/h (3 Bft) 93,62 %
21.11.2018 19:52 3,0 C 2,8 C 2,2 C 86 % 1016,8 hPa 0,0 l/m 0 min 0 min 0 W/m 9,7 km/h (2 Bft) 89,36 %
21.11.2018 19:54 3,0 C 2,8 C 2,2 C 86 % 1016,8 hPa 0,0 l/m 0 min 0 min 0 W/m 16,1 km/h (3 Bft) 97,87 %
21.11.2018 19:56 3,0 C 2,8 C 2,2 C 86 % 1016,9 hPa 0,0 l/m 0 min 0 min 0 W/m 12,9 km/h (3 Bft) 95,65 %
21.11.2018 19:58 3,0 C 2,8 C 2,2 C 86 % 1016,9 hPa 0,0 l/m 0 min 0 min 0 W/m 9,7 km/h (2 Bft) 95,74 %
21.11.2018 20:00 3,0 C 2,8 C 2,2 C 86 % 1016,9 hPa 0,0 l/m 0 min 0 min 0 W/m 16,1 km/h (3 Bft) 97,87 %
21.11.2018 20:02 3,0 C 2,8 C 2,2 C 86 % 1016,9 hPa 0,0 l/m 0 min 0 min 0 W/m 12,9 km/h (3 Bft) 95,74 %
21.11.2018 20:04 3,0 C 2,8 C 2,2 C 86 % 1016,9 hPa 0,0 l/m 0 min 0 min 0 W/m 22,5 km/h (4 Bft) 93,62 %
21.11.2018 20:06 3,0 C 2,8 C 2,2 C 86 % 1017,0 hPa 0,0 l/m 0 min 0 min 0 W/m 16,1 km/h (3 Bft) 96,55 %
21.11.2018 20:08 3,0 C 2,8 C 2,2 C 86 % 1017,0 hPa 0,0 l/m 0 min 0 min 0 W/m 12,9 km/h (3 Bft) 97,14 %
21.11.2018 20:10 3,0 C 2,8 C 2,2 C 86 % 1016,9 hPa 0,0 l/m 0 min 0 min 0 W/m 16,1 km/h (3 Bft) 95,74 %
21.11.2018 20:12 3,0 C 2,8 C 2,2 C 86 % 1016,9 hPa 0,0 l/m 0 min 0 min 0 W/m 12,9 km/h (3 Bft) 97,87 %
21.11.2018 20:14 3,0 C 2,8 C 2,2 C 86 % 1016,9 hPa 0,0 l/m 0 min 0 min 0 W/m 12,9 km/h (3 Bft) 95,74 %
21.11.2018 20:16 3,0 C 2,8 C 2,2 C 86 % 1016,9 hPa 0,0 l/m 0 min 0 min 0 W/m 9,7 km/h (2 Bft) 95,74 %
21.11.2018 20:18 3,0 C 2,8 C 2,2 C 86 % 1017,0 hPa 0,0 l/m 0 min 0 min 0 W/m 9,7 km/h (2 Bft) 95,65 %
21.11.2018 20:20 3,0 C 2,8 C 2,2 C 86 % 1017,0 hPa 0,0 l/m 0 min 0 min 0 W/m 9,7 km/h (2 Bft) 95,74 %
21.11.2018 20:22 3,0 C 2,8 C 2,2 C 86 % 1017,0 hPa 0,0 l/m 0 min 0 min 0 W/m 9,7 km/h (2 Bft) 95,74 %
21.11.2018 20:24 3,0 C 2,8 C 2,2 C 86 % 1017,0 hPa 0,0 l/m 0 min 0 min 0 W/m 16,1 km/h (3 Bft) 95,74 %
21.11.2018 20:26 3,0 C 2,8 C 2,2 C 86 % 1017,0 hPa 0,0 l/m 0 min 0 min 0 W/m 16,1 km/h (3 Bft) 97,87 %
21.11.2018 20:28 3,0 C 2,8 C 2,2 C 86 % 1017,0 hPa 0,0 l/m 0 min 0 min 0 W/m 9,7 km/h (2 Bft) 95,74 %
21.11.2018 20:30 3,0 C 2,8 C 2,2 C 86 % 1017,1 hPa 0,0 l/m 0 min 0 min 0 W/m 9,7 km/h (2 Bft) 97,83 %
21.11.2018 20:32 2,9 C 2,8 C 2,2 C 86 % 1017,1 hPa 0,0 l/m 0 min 0 min 0 W/m 6,4 km/h (2 Bft) 97,87 %
21.11.2018 20:34 3,0 C 2,8 C 2,2 C 86 % 1017,1 hPa 0,0 l/m 0 min 0 min 0 W/m 9,7 km/h (2 Bft) 97,87 %
21.11.2018 20:36 2,9 C 2,8 C 2,2 C 86 % 1017,2 hPa 0,0 l/m 0 min 0 min 0 W/m 9,7 km/h (2 Bft) 98,31 %
21.11.2018 20:38 2,9 C 2,8 C 2,2 C 86 % 1017,2 hPa 0,0 l/m 0 min 0 min 0 W/m 6,4 km/h (2 Bft) 97,14 %
21.11.2018 20:40 2,9 C 2,2 C 2,2 C 86 % 1017,2 hPa 0,0 l/m 0 min 0 min 0 W/m 6,4 km/h (2 Bft) 100,00 %
21.11.2018 20:42 2,9 C 2,2 C 2,2 C 86 % 1017,2 hPa 0,0 l/m 0 min 0 min 0 W/m 12,9 km/h (3 Bft) 100,00 %
21.11.2018 20:44 2,9 C 2,2 C 2,2 C 86 % 1017,2 hPa 0,0 l/m 0 min 0 min 0 W/m 9,7 km/h (2 Bft) 97,87 %
21.11.2018 20:46 2,9 C 2,8 C 2,2 C 86 % 1017,2 hPa 0,0 l/m 0 min 0 min 0 W/m 9,7 km/h (2 Bft) 100,00 %
21.11.2018 20:48 2,9 C 2,8 C 2,2 C 86 % 1017,2 hPa 0,0 l/m 0 min 0 min 0 W/m 6,4 km/h (2 Bft) 100,00 %
21.11.2018 20:50 2,9 C 2,8 C 2,2 C 86 % 1017,2 hPa 0,0 l/m 0 min 0 min 0 W/m 9,7 km/h (2 Bft) 97,87 %
21.11.2018 20:52 2,9 C 2,2 C 2,2 C 86 % 1017,1 hPa 0,0 l/m 0 min 0 min 0 W/m 6,4 km/h (2 Bft) 97,87 %
21.11.2018 20:54 2,9 C 2,2 C 2,2 C 86 % 1017,1 hPa 0,0 l/m 0 min 0 min 0 W/m 9,7 km/h (2 Bft) 95,65 %
21.11.2018 20:56 2,9 C 2,2 C 2,2 C 86 % 1017,1 hPa 0,0 l/m 0 min 0 min 0 W/m 16,1 km/h (3 Bft) 95,74 %
21.11.2018 20:58 2,9 C 2,8 C 2,2 C 86 % 1017,2 hPa 0,0 l/m 0 min 0 min 0 W/m 12,9 km/h (3 Bft) 93,62 %
21.11.2018 21:00 2,9 C 2,8 C 2,2 C 86 % 1017,2 hPa 0,0 l/m 0 min 0 min 0 W/m 12,9 km/h (3 Bft) 97,87 %
21.11.2018 21:02 2,9 C 2,8 C 2,2 C 86 % 1017,2 hPa 0,0 l/m 0 min 0 min 0 W/m 6,4 km/h (2 Bft) 97,87 %
21.11.2018 21:04 2,9 C 2,8 C 2,2 C 86 % 1017,1 hPa 0,0 l/m 0 min 0 min 0 W/m 9,7 km/h (2 Bft) 93,48 %
21.11.2018 21:06 2,9 C 2,8 C 2,2 C 86 % 1017,1 hPa 0,0 l/m 0 min 0 min 0 W/m 9,7 km/h (2 Bft) 98,31 %
21.11.2018 21:08 2,9 C 2,8 C 2,2 C 86 % 1017,1 hPa 0,0 l/m 0 min 0 min 0 W/m 9,7 km/h (2 Bft) 97,14 %
21.11.2018 21:10 2,9 C 2,8 C 2,2 C 86 % 1017,1 hPa 0,0 l/m 0 min 0 min 0 W/m 9,7 km/h (2 Bft) 100,00 %
21.11.2018 21:12 2,9 C 2,8 C 2,2 C 86 % 1017,1 hPa 0,0 l/m 0 min 0 min 0 W/m 9,7 km/h (2 Bft) 100,00 %
21.11.2018 21:14 2,9 C 2,8 C 2,2 C 86 % 1017,2 hPa 0,0 l/m 0 min 0 min 0 W/m 12,9 km/h (3 Bft) 97,87 %
21.11.2018 21:16 2,9 C 2,8 C 2,2 C 86 % 1017,1 hPa 0,0 l/m 0 min 0 min 0 W/m 9,7 km/h (2 Bft) 95,65 %
21.11.2018 21:18 2,9 C 2,8 C 2,2 C 86 % 1017,1 hPa 0,0 l/m 0 min 0 min 0 W/m 6,4 km/h (2 Bft) 97,87 %
21.11.2018 21:20 2,9 C 2,8 C 2,2 C 86 % 1017,1 hPa 0,0 l/m 0 min 0 min 0 W/m 9,7 km/h (2 Bft) 97,14 %
21.11.2018 21:22 2,9 C 2,8 C 2,2 C 86 % 1017,1 hPa 0,0 l/m 0 min 0 min 0 W/m 6,4 km/h (2 Bft) 96,77 %
21.11.2018 21:24 2,9 C 2,8 C 2,2 C 86 % 1017,1 hPa 0,0 l/m 0 min 0 min 0 W/m 6,4 km/h (2 Bft) 95,74 %
21.11.2018 21:26 2,9 C 2,8 C 2,2 C 86 % 1017,1 hPa 0,0 l/m 0 min 0 min 0 W/m 9,7 km/h (2 Bft) 95,74 %
21.11.2018 21:28 2,9 C 2,8 C 2,2 C 86 % 1017,1 hPa 0,0 l/m 0 min 0 min 0 W/m 6,4 km/h (2 Bft) 97,83 %
21.11.2018 21:30 3,0 C 2,8 C 2,2 C 86 % 1017,1 hPa 0,0 l/m 0 min 0 min 0 W/m 9,7 km/h (2 Bft) 97,87 %
21.11.2018 21:32 3,0 C 2,8 C 2,2 C 86 % 1017,2 hPa 0,0 l/m 0 min 0 min 0 W/m 22,5 km/h (4 Bft) 97,87 %
21.11.2018 21:34 3,0 C 2,8 C 2,2 C 86 % 1017,1 hPa 0,0 l/m 0 min 0 min 0 W/m 9,7 km/h (2 Bft) 97,87 %
21.11.2018 21:36 3,0 C 2,8 C 2,2 C 86 % 1017,2 hPa 0,0 l/m 0 min 0 min 0 W/m 9,7 km/h (2 Bft) 97,87 %
21.11.2018 21:38 3,0 C 2,8 C 2,2 C 86 % 1017,1 hPa 0,0 l/m 0 min 0 min 0 W/m 9,7 km/h (2 Bft) 97,87 %
21.11.2018 21:40 3,1 C 2,8 C 2,2 C 86 % 1017,1 hPa 0,0 l/m 0 min 0 min 0 W/m 12,9 km/h (3 Bft) 100,00 %
21.11.2018 21:42 3,1 C 2,8 C 2,2 C 86 % 1017,1 hPa 0,0 l/m 0 min 0 min 0 W/m 9,7 km/h (2 Bft) 97,87 %
21.11.2018 21:44 3,1 C 2,8 C 2,2 C 86 % 1017,1 hPa 0,0 l/m 0 min 0 min 0 W/m 6,4 km/h (2 Bft) 97,92 %
21.11.2018 21:46 3,1 C 2,8 C 2,2 C 85 % 1017,1 hPa 0,0 l/m 0 min 0 min 0 W/m 9,7 km/h (2 Bft) 97,87 %
21.11.2018 21:48 3,1 C 2,8 C 2,2 C 85 % 1017,2 hPa 0,0 l/m 0 min 0 min 0 W/m 9,7 km/h (2 Bft) 97,87 %
21.11.2018 21:50 3,1 C 2,8 C 2,2 C 85 % 1017,1 hPa 0,0 l/m 0 min 0 min 0 W/m 9,7 km/h (2 Bft) 97,87 %
21.11.2018 21:52 3,1 C 2,8 C 2,2 C 85 % 1017,1 hPa 0,0 l/m 0 min 0 min 0 W/m 9,7 km/h (2 Bft) 97,87 %
21.11.2018 21:54 3,1 C 2,8 C 2,2 C 85 % 1017,1 hPa 0,0 l/m 0 min 0 min 0 W/m 6,4 km/h (2 Bft) 97,87 %
21.11.2018 21:56 3,1 C 2,8 C 2,2 C 85 % 1017,2 hPa 0,0 l/m 0 min 0 min 0 W/m 6,4 km/h (2 Bft) 95,65 %
21.11.2018 21:58 3,1 C 2,8 C 2,2 C 85 % 1017,1 hPa 0,0 l/m 0 min 0 min 0 W/m 6,4 km/h (2 Bft) 95,74 %
21.11.2018 22:00 3,2 C 2,8 C 2,2 C 85 % 1017,2 hPa 0,0 l/m 0 min 0 min 0 W/m 12,9 km/h (3 Bft) 91,49 %
21.11.2018 22:02 3,2 C 2,8 C 2,2 C 85 % 1017,2 hPa 0,0 l/m 0 min 0 min 0 W/m 6,4 km/h (2 Bft) 95,74 %
21.11.2018 22:04 3,2 C 2,8 C 2,2 C 85 % 1017,1 hPa 0,0 l/m 0 min 0 min 0 W/m 6,4 km/h (2 Bft) 95,74 %
21.11.2018 22:06 3,2 C 2,8 C 2,2 C 85 % 1017,1 hPa 0,0 l/m 0 min 0 min 0 W/m 6,4 km/h (2 Bft) 97,83 %
21.11.2018 22:08 3,2 C 2,8 C 2,2 C 85 % 1017,1 hPa 0,0 l/m 0 min 0 min 0 W/m 6,4 km/h (2 Bft) 95,74 %
21.11.2018 22:10 3,2 C 2,8 C 2,2 C 85 % 1017,1 hPa 0,0 l/m 0 min 0 min 0 W/m 12,9 km/h (3 Bft) 97,87 %
21.11.2018 22:12 3,2 C 2,8 C 2,2 C 85 % 1017,1 hPa 0,0 l/m 0 min 0 min 0 W/m 9,7 km/h (2 Bft) 97,87 %
21.11.2018 22:14 3,2 C 2,8 C 2,2 C 85 % 1017,1 hPa 0,0 l/m 0 min 0 min 0 W/m 9,7 km/h (2 Bft) 97,87 %
21.11.2018 22:16 3,2 C 2,8 C 2,2 C 85 % 1017,1 hPa 0,0 l/m 0 min 0 min 0 W/m 6,4 km/h (2 Bft) 97,83 %
21.11.2018 22:18 3,2 C 2,8 C 2,2 C 85 % 1017,1 hPa 0,0 l/m 0 min 0 min 0 W/m 6,4 km/h (2 Bft) 97,87 %
21.11.2018 22:20 3,2 C 2,8 C 2,2 C 86 % 1017,0 hPa 0,0 l/m 0 min 0 min 0 W/m 9,7 km/h (2 Bft) 100,00 %
21.11.2018 22:22 3,2 C 2,8 C 2,2 C 85 % 1017,1 hPa 0,0 l/m 0 min 0 min 0 W/m 6,4 km/h (2 Bft) 97,87 %
21.11.2018 22:24 3,2 C 2,8 C 2,2 C 86 % 1017,1 hPa 0,0 l/m 0 min 0 min 0 W/m 6,4 km/h (2 Bft) 95,74 %
21.11.2018 22:26 3,2 C 2,8 C 2,2 C 86 % 1017,1 hPa 0,0 l/m 0 min 0 min 0 W/m 6,4 km/h (2 Bft) 93,62 %
21.11.2018 22:28 3,2 C 2,8 C 2,2 C 86 % 1017,1 hPa 0,0 l/m 0 min 0 min 0 W/m 6,4 km/h (2 Bft) 97,83 %
21.11.2018 22:30 3,2 C 2,8 C 2,2 C 86 % 1017,1 hPa 0,0 l/m 0 min 0 min 0 W/m 9,7 km/h (2 Bft) 97,87 %
21.11.2018 22:32 3,2 C 2,8 C 2,2 C 86 % 1017,0 hPa 0,0 l/m 0 min 0 min 0 W/m 6,4 km/h (2 Bft) 97,87 %
21.11.2018 22:34 3,2 C 2,8 C 2,2 C 86 % 1017,1 hPa 0,0 l/m 0 min 0 min 0 W/m 6,4 km/h (2 Bft) 95,74 %
21.11.2018 22:36 3,2 C 2,8 C 2,2 C 86 % 1017,1 hPa 0,0 l/m 0 min 0 min 0 W/m 6,4 km/h (2 Bft) 95,74 %
21.11.2018 22:38 3,3 C 2,8 C 2,2 C 86 % 1017,0 hPa 0,0 l/m 0 min 0 min 0 W/m 3,2 km/h (1 Bft) 95,74 %
21.11.2018 22:40 3,3 C 2,8 C 2,2 C 86 % 1017,1 hPa 0,0 l/m 0 min 0 min 0 W/m 9,7 km/h (2 Bft) 97,87 %
21.11.2018 22:42 3,3 C 2,8 C 2,2 C 86 % 1017,1 hPa 0,0 l/m 0 min 0 min 0 W/m 9,7 km/h (2 Bft) 95,83 %
21.11.2018 22:44 3,3 C 2,8 C 2,2 C 86 % 1017,0 hPa 0,0 l/m 0 min 0 min 0 W/m 6,4 km/h (2 Bft) 100,00 %
21.11.2018 22:46 3,3 C 2,8 C 2,2 C 86 % 1017,0 hPa 0,0 l/m 0 min 0 min 0 W/m 12,9 km/h (3 Bft) 97,87 %
21.11.2018 22:48 3,3 C 2,8 C 2,2 C 86 % 1017,0 hPa 0,0 l/m 0 min 0 min 0 W/m 12,9 km/h (3 Bft) 100,00 %
21.11.2018 22:50 3,3 C 2,8 C 2,2 C 86 % 1017,0 hPa 0,0 l/m 0 min 0 min 0 W/m 16,1 km/h (3 Bft) 100,00 %
21.11.2018 22:52 3,3 C 2,8 C 2,2 C 85 % 1017,0 hPa 0,0 l/m 0 min 0 min 0 W/m 9,7 km/h (2 Bft) 100,00 %
21.11.2018 22:54 3,3 C 2,8 C 2,2 C 85 % 1017,1 hPa 0,0 l/m 0 min 0 min 0 W/m 6,4 km/h (2 Bft) 100,00 %
21.11.2018 22:56 3,3 C 2,8 C 2,2 C 85 % 1017,1 hPa 0,0 l/m 0 min 0 min 0 W/m 6,4 km/h (2 Bft) 95,74 %
21.11.2018 22:58 3,3 C 2,8 C 2,2 C 85 % 1017,0 hPa 0,0 l/m 0 min 0 min 0 W/m 16,1 km/h (3 Bft) 100,00 %
21.11.2018 23:00 3,3 C 2,8 C 2,8 C 85 % 1017,0 hPa 0,0 l/m 0 min 0 min 0 W/m 6,4 km/h (2 Bft) 100,00 %
21.11.2018 23:02 3,4 C 2,8 C 2,8 C 85 % 1017,0 hPa 0,0 l/m 0 min 0 min 0 W/m 9,7 km/h (2 Bft) 97,87 %
21.11.2018 23:04 3,4 C 3,3 C 2,8 C 85 % 1017,1 hPa 0,0 l/m 0 min 0 min 0 W/m 12,9 km/h (3 Bft) 100,00 %
21.11.2018 23:06 3,4 C 3,3 C 2,8 C 85 % 1017,0 hPa 0,0 l/m 0 min 0 min 0 W/m 9,7 km/h (2 Bft) 97,87 %
21.11.2018 23:08 3,4 C 3,3 C 2,8 C 85 % 1017,1 hPa 0,0 l/m 0 min 0 min 0 W/m 9,7 km/h (2 Bft) 97,87 %
21.11.2018 23:10 3,4 C 3,3 C 2,8 C 85 % 1017,0 hPa 0,0 l/m 0 min 0 min 0 W/m 9,7 km/h (2 Bft) 100,00 %
21.11.2018 23:12 3,4 C 3,3 C 2,8 C 85 % 1017,1 hPa 0,0 l/m 0 min 0 min 0 W/m 12,9 km/h (3 Bft) 100,00 %
21.11.2018 23:14 3,4 C 3,3 C 2,8 C 85 % 1017,2 hPa 0,0 l/m 0 min 0 min 0 W/m 12,9 km/h (3 Bft) 97,87 %
21.11.2018 23:16 3,4 C 3,3 C 2,8 C 85 % 1017,2 hPa 0,0 l/m 0 min 0 min 0 W/m 19,3 km/h (3 Bft) 100,00 %
21.11.2018 23:18 3,4 C 3,3 C 2,8 C 85 % 1017,3 hPa 0,0 l/m 0 min 0 min 0 W/m 9,7 km/h (2 Bft) 97,87 %
21.11.2018 23:20 3,5 C 3,3 C 2,8 C 85 % 1017,3 hPa 0,0 l/m 0 min 0 min 0 W/m 12,9 km/h (3 Bft) 97,87 %
21.11.2018 23:22 3,5 C 3,3 C 2,8 C 85 % 1017,3 hPa 0,0 l/m 0 min 0 min 0 W/m 16,1 km/h (3 Bft) 97,87 %
21.11.2018 23:24 3,5 C 3,3 C 2,8 C 85 % 1017,3 hPa 0,0 l/m 0 min 0 min 0 W/m 12,9 km/h (3 Bft) 97,83 %
21.11.2018 23:26 3,5 C 3,3 C 2,8 C 85 % 1017,3 hPa 0,0 l/m 0 min 0 min 0 W/m 12,9 km/h (3 Bft) 95,74 %
21.11.2018 23:28 3,5 C 3,3 C 2,8 C 85 % 1017,3 hPa 0,0 l/m 0 min 0 min 0 W/m 12,9 km/h (3 Bft) 95,74 %
21.11.2018 23:30 3,5 C 3,3 C 2,8 C 85 % 1017,3 hPa 0,0 l/m 0 min 0 min 0 W/m 16,1 km/h (3 Bft) 97,87 %
21.11.2018 23:32 3,6 C 3,3 C 2,8 C 85 % 1017,3 hPa 0,0 l/m 0 min 0 min 0 W/m 9,7 km/h (2 Bft) 97,87 %
21.11.2018 23:34 3,6 C 3,3 C 2,8 C 85 % 1017,4 hPa 0,0 l/m 0 min 0 min 0 W/m 9,7 km/h (2 Bft) 97,83 %
21.11.2018 23:36 3,6 C 3,3 C 2,8 C 85 % 1017,3 hPa 0,0 l/m 0 min 0 min 0 W/m 9,7 km/h (2 Bft) 97,87 %
21.11.2018 23:38 3,6 C 3,3 C 2,8 C 85 % 1017,3 hPa 0,0 l/m 0 min 0 min 0 W/m 9,7 km/h (2 Bft) 97,87 %
21.11.2018 23:40 3,6 C 3,3 C 2,8 C 85 % 1017,3 hPa 0,0 l/m 0 min 0 min 0 W/m 9,7 km/h (2 Bft) 97,87 %
21.11.2018 23:42 3,6 C 3,3 C 2,8 C 85 % 1017,3 hPa 0,0 l/m 0 min 0 min 0 W/m 6,4 km/h (2 Bft) 95,74 %
21.11.2018 23:44 3,6 C 3,3 C 2,8 C 85 % 1017,3 hPa 0,0 l/m 0 min 0 min 0 W/m 6,4 km/h (2 Bft) 97,87 %
21.11.2018 23:46 3,6 C 3,3 C 2,8 C 85 % 1017,4 hPa 0,0 l/m 0 min 0 min 0 W/m 6,4 km/h (2 Bft) 97,83 %
21.11.2018 23:48 3,6 C 3,3 C 2,8 C 85 % 1017,3 hPa 0,0 l/m 0 min 0 min 0 W/m 6,4 km/h (2 Bft) 97,87 %
21.11.2018 23:50 3,6 C 3,3 C 2,8 C 85 % 1017,3 hPa 0,0 l/m 0 min 0 min 0 W/m 9,7 km/h (2 Bft) 97,87 %
21.11.2018 23:52 3,6 C 3,3 C 2,8 C 85 % 1017,3 hPa 0,0 l/m 0 min 0 min 0 W/m 6,4 km/h (2 Bft) 93,62 %
21.11.2018 23:54 3,6 C 3,3 C 2,8 C 85 % 1017,2 hPa 0,0 l/m 0 min 0 min 0 W/m 3,2 km/h (1 Bft) 97,87 %
21.11.2018 23:56 3,6 C 3,3 C 2,8 C 85 % 1017,2 hPa 0,0 l/m 0 min 0 min 0 W/m 6,4 km/h (2 Bft) 95,74 %
21.11.2018 23:58 3,6 C 3,3 C 2,8 C 85 % 1017,2 hPa 0,0 l/m 0 min 0 min 0 W/m 6,4 km/h (2 Bft) 95,65 %
_ Min-Zeit 08:02 07:36 07:26 13:24 00:46 - - - - 05:14 06:34
Minimum _ -1,1 C -2,2 C -1,7 C 76 % 1007,8 hPa - - - - 0,0 km/h (0 Bft) 85,11 %
_ Max-Zeit 13:18 11:24 13:02 09:40 23:34 00:00 09:16 00:00 13:00 00:22 00:26
Maximum _ 5,9 C 12,2 C 5,6 C 95 % 1017,4 hPa 0,0 l/m 2 min 0 min 420 W/m 29,0 km/h
O-NO (5 Bft)
100,00 %
Durchschnitt _ 2,8 C 2,9 C 1,8 C 86 % 1013,6 hPa #0,0 l/m #3:54 h #0 min. 126 W/m 7,9 km/h (2 Bft) 97,43 %
© 2018 W. Hausmann